Wetterdaten: Montag, 07.02.2022
Datum Zeit Temp. Aussen Temp. o. S. Temp +5cm Feuchte Auss Luftdruck Regen Sonnenschein Regendauer Solar Windben Empfang
07.02.2022 00:00 3,9 C 3,3 C 0,6 C 92 % 1005,2 hPa 0,0 l/m 0 min 0 min 0 W/m 16,1 km/h (3 Bft) 95,74 %
07.02.2022 00:02 3,9 C 3,3 C 0,6 C 92 % 1005,2 hPa 0,0 l/m 0 min 0 min 0 W/m 22,5 km/h (4 Bft) 94,59 %
07.02.2022 00:04 3,9 C 3,3 C 1,1 C 92 % 1005,3 hPa 0,0 l/m 0 min 0 min 0 W/m 25,7 km/h (4 Bft) 93,62 %
07.02.2022 00:08 3,9 C 3,3 C 1,1 C 91 % 1005,4 hPa 0,0 l/m 0 min 0 min 0 W/m 19,3 km/h (3 Bft) 96,81 %
07.02.2022 00:10 4,0 C 3,3 C 1,1 C 91 % 1005,4 hPa 0,0 l/m 0 min 0 min 0 W/m 16,1 km/h (3 Bft) 95,74 %
07.02.2022 00:12 4,0 C 3,3 C 1,1 C 91 % 1005,2 hPa 0,0 l/m 0 min 0 min 0 W/m 19,3 km/h (3 Bft) 97,87 %
07.02.2022 00:14 4,1 C 3,3 C 1,1 C 91 % 1005,4 hPa 0,0 l/m 0 min 2 min 0 W/m 16,1 km/h (3 Bft) 97,87 %
07.02.2022 00:16 4,1 C 3,3 C 1,1 C 91 % 1005,7 hPa 0,0 l/m 0 min 2 min 0 W/m 16,1 km/h (3 Bft) 97,83 %
07.02.2022 00:18 4,1 C 3,3 C 1,1 C 91 % 1005,9 hPa 0,2 l/m 0 min 2 min 0 W/m 19,3 km/h (3 Bft) 97,87 %
07.02.2022 00:20 4,1 C 3,3 C 1,1 C 91 % 1006,7 hPa 0,0 l/m 0 min 2 min 0 W/m 41,8 km/h (6 Bft) 97,87 %
07.02.2022 00:22 3,9 C 2,8 C 0,6 C 91 % 1006,5 hPa 0,0 l/m 0 min 2 min 0 W/m 25,7 km/h (4 Bft) 97,87 %
07.02.2022 00:24 3,8 C 2,8 C 0,6 C 91 % 1006,4 hPa 0,2 l/m 0 min 2 min 0 W/m 25,7 km/h (4 Bft) 95,74 %
07.02.2022 00:26 3,7 C 2,8 C 0,6 C 91 % 1006,2 hPa 0,0 l/m 0 min 2 min 0 W/m 19,3 km/h (3 Bft) 97,83 %
07.02.2022 00:28 3,6 C 2,8 C 0,6 C 91 % 1006,3 hPa 0,0 l/m 0 min 0 min 0 W/m 25,7 km/h (4 Bft) 100,00 %
07.02.2022 00:30 3,6 C 2,8 C 0,6 C 92 % 1006,3 hPa 0,0 l/m 0 min 0 min 0 W/m 19,3 km/h (3 Bft) 100,00 %
07.02.2022 00:32 3,5 C 2,8 C 0,6 C 92 % 1006,2 hPa 0,0 l/m 0 min 0 min 0 W/m 16,1 km/h (3 Bft) 100,00 %
07.02.2022 00:34 3,4 C 2,8 C 0,6 C 92 % 1006,2 hPa 0,0 l/m 0 min 0 min 0 W/m 19,3 km/h (3 Bft) 95,74 %
07.02.2022 00:36 3,4 C 2,8 C 0,6 C 92 % 1006,3 hPa 0,0 l/m 0 min 0 min 0 W/m 29,0 km/h (5 Bft) 97,87 %
07.02.2022 00:38 3,4 C 2,8 C 0,6 C 92 % 1006,4 hPa 0,0 l/m 0 min 0 min 0 W/m 22,5 km/h (4 Bft) 97,83 %
07.02.2022 00:40 3,3 C 2,8 C 0,6 C 92 % 1006,4 hPa 0,0 l/m 0 min 0 min 0 W/m 25,7 km/h (4 Bft) 97,87 %
07.02.2022 00:42 3,4 C 2,8 C 0,6 C 92 % 1006,4 hPa 0,0 l/m 0 min 0 min 0 W/m 22,5 km/h (4 Bft) 100,00 %
07.02.2022 00:44 3,4 C 2,8 C 0,6 C 92 % 1006,5 hPa 0,0 l/m 0 min 0 min 0 W/m 32,2 km/h (5 Bft) 97,87 %
07.02.2022 00:46 3,4 C 2,8 C 0,6 C 92 % 1006,5 hPa 0,0 l/m 0 min 0 min 0 W/m 22,5 km/h (4 Bft) 96,00 %
07.02.2022 00:48 3,4 C 2,8 C 0,6 C 93 % 1006,5 hPa 0,0 l/m 0 min 0 min 0 W/m 25,7 km/h (4 Bft) 97,87 %
07.02.2022 00:50 3,5 C 2,8 C 0,6 C 93 % 1006,7 hPa 0,0 l/m 0 min 0 min 0 W/m 19,3 km/h (3 Bft) 97,87 %
07.02.2022 00:52 3,5 C 2,8 C 0,6 C 93 % 1006,7 hPa 0,0 l/m 0 min 0 min 0 W/m 16,1 km/h (3 Bft) 97,83 %
07.02.2022 00:54 3,6 C 2,8 C 0,6 C 92 % 1006,8 hPa 0,0 l/m 0 min 0 min 0 W/m 16,1 km/h (3 Bft) 97,87 %
07.02.2022 00:56 3,6 C 2,8 C 0,6 C 92 % 1006,8 hPa 0,0 l/m 0 min 0 min 0 W/m 35,4 km/h (5 Bft) 95,74 %
07.02.2022 00:58 3,6 C 2,8 C 0,6 C 92 % 1007,0 hPa 0,0 l/m 0 min 0 min 0 W/m 16,1 km/h (3 Bft) 95,74 %
07.02.2022 01:00 3,6 C 3,3 C 0,6 C 92 % 1007,0 hPa 0,0 l/m 0 min 0 min 0 W/m 22,5 km/h (4 Bft) 95,74 %
07.02.2022 01:02 3,6 C 3,3 C 0,6 C 92 % 1007,0 hPa 0,0 l/m 0 min 0 min 0 W/m 16,1 km/h (3 Bft) 97,87 %
07.02.2022 01:04 3,7 C 3,3 C 1,1 C 92 % 1007,1 hPa 0,0 l/m 0 min 0 min 0 W/m 19,3 km/h (3 Bft) 97,87 %
07.02.2022 01:06 3,7 C 3,3 C 1,1 C 92 % 1007,3 hPa 0,0 l/m 0 min 0 min 0 W/m 19,3 km/h (3 Bft) 97,83 %
07.02.2022 01:08 3,7 C 3,3 C 1,1 C 92 % 1007,7 hPa 0,0 l/m 0 min 2 min 0 W/m 22,5 km/h (4 Bft) 95,74 %
07.02.2022 01:10 3,7 C 2,8 C 0,6 C 92 % 1008,1 hPa 0,2 l/m 0 min 2 min 0 W/m 57,9 km/h (7 Bft) 97,87 %
07.02.2022 01:12 3,6 C 2,8 C 0,6 C 91 % 1008,0 hPa 0,2 l/m 0 min 2 min 0 W/m 54,7 km/h (7 Bft) 95,74 %
07.02.2022 01:14 3,4 C 2,8 C 0,0 C 91 % 1007,9 hPa 0,0 l/m 0 min 2 min 0 W/m 54,7 km/h (7 Bft) 95,74 %
07.02.2022 01:16 3,4 C 2,2 C 0,0 C 91 % 1008,0 hPa 0,0 l/m 0 min 2 min 0 W/m 35,4 km/h (5 Bft) 95,65 %
07.02.2022 01:18 3,3 C 2,2 C 0,0 C 91 % 1008,0 hPa 0,0 l/m 0 min 2 min 0 W/m 29,0 km/h (5 Bft) 97,87 %
07.02.2022 01:20 3,3 C 2,2 C 0,0 C 91 % 1007,8 hPa 0,0 l/m 0 min 2 min 0 W/m 35,4 km/h (5 Bft) 97,87 %
07.02.2022 01:22 3,2 C 2,2 C 0,0 C 92 % 1007,9 hPa 0,0 l/m 0 min 2 min 0 W/m 35,4 km/h (5 Bft) 95,74 %
07.02.2022 01:24 3,1 C 2,2 C 0,0 C 92 % 1008,0 hPa 0,2 l/m 0 min 0 min 0 W/m 25,7 km/h (4 Bft) 95,74 %
07.02.2022 01:26 3,1 C 2,2 C 0,0 C 92 % 1008,0 hPa 0,0 l/m 0 min 0 min 0 W/m 22,5 km/h (4 Bft) 95,74 %
07.02.2022 01:28 3,1 C 2,2 C 0,0 C 92 % 1008,0 hPa 0,0 l/m 0 min 0 min 0 W/m 22,5 km/h (4 Bft) 97,83 %
07.02.2022 01:30 3,1 C 2,2 C 0,0 C 92 % 1008,1 hPa 0,0 l/m 0 min 0 min 0 W/m 16,1 km/h (3 Bft) 97,87 %
07.02.2022 01:32 3,0 C 2,2 C 0,0 C 92 % 1008,0 hPa 0,0 l/m 0 min 0 min 0 W/m 16,1 km/h (3 Bft) 97,87 %
07.02.2022 01:34 3,0 C 2,2 C 0,0 C 92 % 1008,1 hPa 0,0 l/m 0 min 0 min 0 W/m 19,3 km/h (3 Bft) 97,87 %
07.02.2022 01:36 3,0 C 2,2 C 0,0 C 92 % 1008,2 hPa 0,0 l/m 0 min 0 min 0 W/m 16,1 km/h (3 Bft) 97,87 %
07.02.2022 01:38 2,9 C 2,2 C 0,0 C 92 % 1008,4 hPa 0,0 l/m 0 min 0 min 0 W/m 16,1 km/h (3 Bft) 93,62 %
07.02.2022 01:40 2,9 C 2,2 C 0,0 C 92 % 1008,4 hPa 0,0 l/m 0 min 0 min 0 W/m 16,1 km/h (3 Bft) 97,83 %
07.02.2022 01:42 2,9 C 2,2 C 0,0 C 92 % 1008,3 hPa 0,0 l/m 0 min 0 min 0 W/m 16,1 km/h (3 Bft) 97,87 %
07.02.2022 01:44 2,9 C 2,2 C 0,0 C 92 % 1008,3 hPa 0,0 l/m 0 min 0 min 0 W/m 16,1 km/h (3 Bft) 97,87 %
07.02.2022 01:46 2,9 C 2,2 C 0,0 C 92 % 1008,4 hPa 0,0 l/m 0 min 0 min 0 W/m 25,7 km/h (4 Bft) 97,87 %
07.02.2022 01:48 3,0 C 2,2 C 0,0 C 92 % 1008,6 hPa 0,0 l/m 0 min 0 min 0 W/m 12,9 km/h (3 Bft) 97,87 %
07.02.2022 01:50 3,0 C 2,2 C 0,0 C 92 % 1008,6 hPa 0,0 l/m 0 min 0 min 0 W/m 16,1 km/h (3 Bft) 97,87 %
07.02.2022 01:52 3,0 C 2,2 C 0,0 C 92 % 1008,7 hPa 0,0 l/m 0 min 0 min 0 W/m 25,7 km/h (4 Bft) 100,00 %
07.02.2022 01:54 3,0 C 2,2 C 0,6 C 92 % 1008,6 hPa 0,0 l/m 0 min 0 min 0 W/m 22,5 km/h (4 Bft) 100,00 %
07.02.2022 01:56 3,1 C 2,2 C 0,0 C 92 % 1008,7 hPa 0,0 l/m 0 min 0 min 0 W/m 22,5 km/h (4 Bft) 100,00 %
07.02.2022 01:58 3,1 C 2,2 C 0,6 C 92 % 1008,8 hPa 0,0 l/m 0 min 0 min 0 W/m 19,3 km/h (3 Bft) 100,00 %
07.02.2022 02:00 3,1 C 2,2 C 0,6 C 92 % 1008,8 hPa 0,0 l/m 0 min 0 min 0 W/m 19,3 km/h (3 Bft) 100,00 %
07.02.2022 02:02 3,1 C 2,2 C 0,6 C 92 % 1008,8 hPa 0,0 l/m 0 min 0 min 0 W/m 16,1 km/h (3 Bft) 100,00 %
07.02.2022 02:04 3,1 C 2,2 C 0,6 C 92 % 1008,9 hPa 0,0 l/m 0 min 0 min 0 W/m 12,9 km/h (3 Bft) 100,00 %
07.02.2022 02:06 3,1 C 2,2 C 0,6 C 92 % 1009,1 hPa 0,0 l/m 0 min 0 min 0 W/m 19,3 km/h (3 Bft) 100,00 %
07.02.2022 02:08 3,1 C 2,2 C 0,0 C 92 % 1009,2 hPa 0,0 l/m 0 min 0 min 0 W/m 19,3 km/h (3 Bft) 100,00 %
07.02.2022 02:10 3,1 C 2,2 C 0,0 C 92 % 1009,2 hPa 0,0 l/m 0 min 0 min 0 W/m 12,9 km/h (3 Bft) 100,00 %
07.02.2022 02:12 3,1 C 2,2 C 0,0 C 92 % 1009,3 hPa 0,0 l/m 0 min 0 min 0 W/m 12,9 km/h (3 Bft) 100,00 %
07.02.2022 02:14 3,1 C 2,2 C 0,0 C 92 % 1009,3 hPa 0,0 l/m 0 min 0 min 0 W/m 16,1 km/h (3 Bft) 100,00 %
07.02.2022 02:16 3,1 C 2,8 C 0,6 C 92 % 1009,4 hPa 0,0 l/m 0 min 0 min 0 W/m 19,3 km/h (3 Bft) 100,00 %
07.02.2022 02:18 3,1 C 2,8 C 0,6 C 92 % 1009,4 hPa 0,0 l/m 0 min 0 min 0 W/m 25,7 km/h (4 Bft) 100,00 %
07.02.2022 02:20 3,1 C 2,8 C 0,6 C 92 % 1009,5 hPa 0,0 l/m 0 min 0 min 0 W/m 16,1 km/h (3 Bft) 100,00 %
07.02.2022 02:22 3,2 C 2,8 C 0,6 C 92 % 1009,6 hPa 0,0 l/m 0 min 0 min 0 W/m 12,9 km/h (3 Bft) 100,00 %
07.02.2022 02:24 3,2 C 2,8 C 0,6 C 92 % 1009,6 hPa 0,0 l/m 0 min 2 min 0 W/m 22,5 km/h (4 Bft) 100,00 %
07.02.2022 02:26 3,2 C 2,8 C 0,6 C 92 % 1009,7 hPa 0,0 l/m 0 min 2 min 0 W/m 19,3 km/h (3 Bft) 95,74 %
07.02.2022 02:28 3,2 C 2,8 C 0,6 C 92 % 1009,8 hPa 0,0 l/m 0 min 0 min 0 W/m 16,1 km/h (3 Bft) 100,00 %
07.02.2022 02:30 3,2 C 2,8 C 0,6 C 92 % 1009,9 hPa 0,0 l/m 0 min 0 min 0 W/m 16,1 km/h (3 Bft) 100,00 %
07.02.2022 02:32 3,3 C 2,8 C 0,6 C 92 % 1010,1 hPa 0,0 l/m 0 min 0 min 0 W/m 22,5 km/h (4 Bft) 97,14 %
07.02.2022 02:34 3,3 C 2,8 C 0,6 C 92 % 1010,0 hPa 0,0 l/m 0 min 0 min 0 W/m 25,7 km/h (4 Bft) 100,00 %
07.02.2022 02:36 3,3 C 2,8 C 0,6 C 92 % 1010,2 hPa 0,0 l/m 0 min 0 min 0 W/m 9,7 km/h (2 Bft) 100,00 %
07.02.2022 02:38 3,4 C 2,8 C 0,6 C 92 % 1010,2 hPa 0,0 l/m 0 min 0 min 0 W/m 12,9 km/h (3 Bft) 100,00 %
07.02.2022 02:40 3,4 C 2,8 C 0,6 C 92 % 1010,3 hPa 0,0 l/m 0 min 0 min 0 W/m 12,9 km/h (3 Bft) 100,00 %
07.02.2022 02:42 3,4 C 2,8 C 0,6 C 92 % 1010,4 hPa 0,0 l/m 0 min 2 min 0 W/m 12,9 km/h (3 Bft) 100,00 %
07.02.2022 02:44 3,4 C 2,8 C 0,6 C 92 % 1010,4 hPa 0,0 l/m 0 min 2 min 0 W/m 9,7 km/h (2 Bft) 97,87 %
07.02.2022 02:46 3,4 C 2,8 C 0,6 C 92 % 1010,6 hPa 0,0 l/m 0 min 2 min 0 W/m 12,9 km/h (3 Bft) 97,87 %
07.02.2022 02:48 3,4 C 2,8 C 0,6 C 92 % 1010,6 hPa 0,0 l/m 0 min 2 min 0 W/m 9,7 km/h (2 Bft) 100,00 %
07.02.2022 02:50 3,4 C 2,8 C 0,6 C 92 % 1010,8 hPa 0,2 l/m 0 min 2 min 0 W/m 22,5 km/h (4 Bft) 100,00 %
07.02.2022 02:52 3,5 C 2,8 C 0,6 C 92 % 1011,0 hPa 0,0 l/m 0 min 2 min 0 W/m 22,5 km/h (4 Bft) 100,00 %
07.02.2022 02:54 3,5 C 2,8 C 0,6 C 93 % 1010,9 hPa 0,0 l/m 0 min 2 min 0 W/m 22,5 km/h (4 Bft) 93,62 %
07.02.2022 02:56 3,5 C 2,8 C 0,6 C 93 % 1011,1 hPa 0,0 l/m 0 min 2 min 0 W/m 25,7 km/h (4 Bft) 97,87 %
07.02.2022 02:58 3,5 C 2,8 C 0,6 C 93 % 1011,1 hPa 0,0 l/m 0 min 2 min 0 W/m 22,5 km/h (4 Bft) 97,87 %
07.02.2022 03:00 3,5 C 2,8 C 0,6 C 93 % 1011,3 hPa 0,0 l/m 0 min 2 min 0 W/m 29,0 km/h (5 Bft) 100,00 %
07.02.2022 03:02 3,5 C 2,8 C 0,6 C 93 % 1011,2 hPa 0,0 l/m 0 min 2 min 0 W/m 22,5 km/h (4 Bft) 95,74 %
07.02.2022 03:04 3,5 C 2,8 C 0,6 C 93 % 1011,5 hPa 0,0 l/m 0 min 2 min 0 W/m 22,5 km/h (4 Bft) 93,62 %
07.02.2022 03:06 3,5 C 2,8 C 0,6 C 93 % 1011,5 hPa 0,0 l/m 0 min 2 min 0 W/m 29,0 km/h (5 Bft) 97,87 %
07.02.2022 03:08 3,4 C 2,8 C 0,6 C 93 % 1011,7 hPa 0,0 l/m 0 min 2 min 0 W/m 25,7 km/h (4 Bft) 97,87 %
07.02.2022 03:10 3,4 C 2,8 C 0,6 C 93 % 1011,7 hPa 0,2 l/m 0 min 2 min 0 W/m 25,7 km/h (4 Bft) 91,49 %
07.02.2022 03:12 3,4 C 2,8 C 0,6 C 93 % 1011,8 hPa 0,0 l/m 0 min 2 min 0 W/m 38,6 km/h (5 Bft) 93,48 %
07.02.2022 03:14 3,3 C 2,8 C 0,6 C 93 % 1011,8 hPa 0,0 l/m 0 min 2 min 0 W/m 35,4 km/h (5 Bft) 93,62 %
07.02.2022 03:16 3,2 C 2,2 C 0,0 C 92 % 1012,0 hPa 0,0 l/m 0 min 2 min 0 W/m 35,4 km/h (5 Bft) 93,62 %
07.02.2022 03:18 3,1 C 2,2 C 0,0 C 93 % 1012,1 hPa 0,0 l/m 0 min 0 min 0 W/m 38,6 km/h (5 Bft) 91,49 %
07.02.2022 03:20 2,9 C 2,2 C 0,0 C 92 % 1012,2 hPa 0,0 l/m 0 min 0 min 0 W/m 25,7 km/h (4 Bft) 93,62 %
07.02.2022 03:22 2,8 C 2,2 C 0,0 C 92 % 1012,1 hPa 0,0 l/m 0 min 0 min 0 W/m 25,7 km/h (4 Bft) 91,49 %
07.02.2022 03:24 2,8 C 2,2 C 0,0 C 92 % 1012,1 hPa 0,0 l/m 0 min 0 min 0 W/m 16,1 km/h (3 Bft) 93,48 %
07.02.2022 03:26 2,7 C 1,7 C 0,0 C 93 % 1012,2 hPa 0,0 l/m 0 min 0 min 0 W/m 19,3 km/h (3 Bft) 95,74 %
07.02.2022 03:28 2,7 C 1,7 C -0,6 C 92 % 1012,1 hPa 0,0 l/m 0 min 0 min 0 W/m 22,5 km/h (4 Bft) 93,62 %
07.02.2022 03:30 2,6 C 1,7 C -0,6 C 93 % 1012,3 hPa 0,0 l/m 0 min 0 min 0 W/m 19,3 km/h (3 Bft) 95,74 %
07.02.2022 03:32 2,6 C 1,7 C -0,6 C 93 % 1012,4 hPa 0,0 l/m 0 min 0 min 0 W/m 9,7 km/h (2 Bft) 91,49 %
07.02.2022 03:34 2,5 C 1,7 C -0,6 C 93 % 1012,4 hPa 0,0 l/m 0 min 0 min 0 W/m 19,3 km/h (3 Bft) 93,62 %
07.02.2022 03:36 2,4 C 1,7 C -0,6 C 93 % 1012,5 hPa 0,0 l/m 0 min 0 min 0 W/m 16,1 km/h (3 Bft) 91,30 %
07.02.2022 03:38 2,4 C 1,7 C -0,6 C 93 % 1012,6 hPa 0,0 l/m 0 min 0 min 0 W/m 16,1 km/h (3 Bft) 72,34 %
07.02.2022 03:40 2,4 C 1,7 C -0,6 C 93 % 1012,5 hPa 0,0 l/m 0 min 0 min 0 W/m 12,9 km/h (3 Bft) 76,09 %
07.02.2022 03:42 2,4 C 1,7 C -0,6 C 93 % 1012,6 hPa 0,0 l/m 0 min 0 min 0 W/m 16,1 km/h (3 Bft) 91,49 %
07.02.2022 03:44 2,3 C 1,7 C -0,6 C 93 % 1012,7 hPa 0,0 l/m 0 min 0 min 0 W/m 16,1 km/h (3 Bft) 95,74 %
07.02.2022 03:46 2,3 C 1,7 C -0,6 C 93 % 1012,8 hPa 0,0 l/m 0 min 0 min 0 W/m 12,9 km/h (3 Bft) 95,65 %
07.02.2022 03:48 2,3 C 1,7 C -0,6 C 93 % 1013,0 hPa 0,0 l/m 0 min 0 min 0 W/m 16,1 km/h (3 Bft) 93,62 %
07.02.2022 03:50 2,3 C 1,7 C -0,6 C 93 % 1013,0 hPa 0,0 l/m 0 min 0 min 0 W/m 16,1 km/h (3 Bft) 95,74 %
07.02.2022 03:52 2,3 C 1,7 C -0,6 C 93 % 1013,0 hPa 0,0 l/m 0 min 0 min 0 W/m 16,1 km/h (3 Bft) 97,87 %
07.02.2022 03:54 2,3 C 1,7 C -0,6 C 93 % 1013,1 hPa 0,0 l/m 0 min 0 min 0 W/m 12,9 km/h (3 Bft) 100,00 %
07.02.2022 03:56 2,4 C 1,7 C -0,6 C 93 % 1013,1 hPa 0,0 l/m 0 min 0 min 0 W/m 12,9 km/h (3 Bft) 97,87 %
07.02.2022 03:58 2,4 C 1,7 C 0,0 C 93 % 1013,2 hPa 0,0 l/m 0 min 0 min 0 W/m 12,9 km/h (3 Bft) 100,00 %
07.02.2022 04:00 2,3 C 1,7 C 0,0 C 93 % 1013,3 hPa 0,0 l/m 0 min 0 min 0 W/m 16,1 km/h (3 Bft) 97,87 %
07.02.2022 04:02 2,4 C 1,7 C 0,0 C 93 % 1013,4 hPa 0,0 l/m 0 min 0 min 0 W/m 12,9 km/h (3 Bft) 100,00 %
07.02.2022 04:04 2,4 C 1,7 C 0,0 C 93 % 1013,4 hPa 0,0 l/m 0 min 0 min 0 W/m 16,1 km/h (3 Bft) 100,00 %
07.02.2022 04:06 2,4 C 1,7 C 0,0 C 93 % 1013,5 hPa 0,0 l/m 0 min 0 min 0 W/m 12,9 km/h (3 Bft) 100,00 %
07.02.2022 04:08 2,4 C 1,7 C 0,0 C 93 % 1013,6 hPa 0,0 l/m 0 min 0 min 0 W/m 12,9 km/h (3 Bft) 100,00 %
07.02.2022 04:10 2,4 C 1,7 C 0,0 C 93 % 1013,5 hPa 0,0 l/m 0 min 0 min 0 W/m 12,9 km/h (3 Bft) 95,65 %
07.02.2022 04:12 2,4 C 1,7 C 0,0 C 93 % 1013,6 hPa 0,0 l/m 0 min 0 min 0 W/m 12,9 km/h (3 Bft) 100,00 %
07.02.2022 04:14 2,4 C 1,7 C 0,0 C 93 % 1013,7 hPa 0,0 l/m 0 min 0 min 0 W/m 19,3 km/h (3 Bft) 100,00 %
07.02.2022 04:16 2,4 C 1,7 C 0,0 C 93 % 1013,8 hPa 0,2 l/m 0 min 0 min 0 W/m 19,3 km/h (3 Bft) 100,00 %
07.02.2022 04:18 2,4 C 1,7 C 0,0 C 93 % 1013,8 hPa 0,0 l/m 0 min 0 min 0 W/m 19,3 km/h (3 Bft) 100,00 %
07.02.2022 04:20 2,5 C 1,7 C 0,0 C 93 % 1013,9 hPa 0,0 l/m 0 min 0 min 0 W/m 22,5 km/h (4 Bft) 100,00 %
07.02.2022 04:22 2,5 C 1,7 C 0,0 C 93 % 1013,9 hPa 0,0 l/m 0 min 0 min 0 W/m 19,3 km/h (3 Bft) 100,00 %
07.02.2022 04:24 2,5 C 1,7 C 0,0 C 93 % 1014,0 hPa 0,0 l/m 0 min 0 min 0 W/m 22,5 km/h (4 Bft) 100,00 %
07.02.2022 04:26 2,5 C 1,7 C 0,0 C 93 % 1014,2 hPa 0,0 l/m 0 min 0 min 0 W/m 22,5 km/h (4 Bft) 97,87 %
07.02.2022 04:28 2,6 C 2,2 C 0,0 C 93 % 1014,1 hPa 0,0 l/m 0 min 0 min 0 W/m 16,1 km/h (3 Bft) 57,45 %
07.02.2022 04:30 2,6 C 1,7 C 0,0 C 93 % 1014,1 hPa 0,0 l/m 0 min 0 min 0 W/m 25,7 km/h (4 Bft) 100,00 %
07.02.2022 04:32 2,6 C 2,2 C 0,0 C 93 % 1014,2 hPa 0,0 l/m 0 min 0 min 0 W/m 16,1 km/h (3 Bft) 100,00 %
07.02.2022 04:34 2,6 C 2,2 C 0,0 C 93 % 1014,2 hPa 0,0 l/m 0 min 0 min 0 W/m 19,3 km/h (3 Bft) 100,00 %
07.02.2022 04:36 2,6 C 2,2 C 0,0 C 93 % 1014,3 hPa 0,0 l/m 0 min 0 min 0 W/m 19,3 km/h (3 Bft) 100,00 %
07.02.2022 04:38 2,6 C 2,2 C 0,0 C 92 % 1014,3 hPa 0,0 l/m 0 min 0 min 0 W/m 12,9 km/h (3 Bft) 100,00 %
07.02.2022 04:40 2,6 C 2,2 C 0,0 C 92 % 1014,3 hPa 0,0 l/m 0 min 0 min 0 W/m 19,3 km/h (3 Bft) 100,00 %
07.02.2022 04:42 2,6 C 2,2 C 0,0 C 92 % 1014,5 hPa 0,0 l/m 0 min 0 min 0 W/m 19,3 km/h (3 Bft) 100,00 %
07.02.2022 04:44 2,6 C 2,2 C 0,0 C 92 % 1014,4 hPa 0,0 l/m 0 min 0 min 0 W/m 19,3 km/h (3 Bft) 100,00 %
07.02.2022 04:46 2,6 C 2,2 C 0,0 C 92 % 1014,6 hPa 0,0 l/m 0 min 0 min 0 W/m 22,5 km/h (4 Bft) 95,74 %
07.02.2022 04:48 2,6 C 2,2 C 0,0 C 92 % 1014,6 hPa 0,0 l/m 0 min 0 min 0 W/m 16,1 km/h (3 Bft) 100,00 %
07.02.2022 04:50 2,6 C 1,7 C 0,0 C 92 % 1014,6 hPa 0,0 l/m 0 min 0 min 0 W/m 16,1 km/h (3 Bft) 100,00 %
07.02.2022 04:52 2,6 C 2,2 C 0,0 C 92 % 1014,6 hPa 0,0 l/m 0 min 0 min 0 W/m 22,5 km/h (4 Bft) 100,00 %
07.02.2022 04:54 2,6 C 2,2 C 0,0 C 92 % 1014,6 hPa 0,0 l/m 0 min 0 min 0 W/m 19,3 km/h (3 Bft) 97,87 %
07.02.2022 04:56 2,6 C 2,2 C 0,0 C 92 % 1014,8 hPa 0,0 l/m 0 min 0 min 0 W/m 16,1 km/h (3 Bft) 97,87 %
07.02.2022 04:58 2,6 C 2,2 C 0,0 C 92 % 1015,0 hPa 0,0 l/m 0 min 0 min 0 W/m 16,1 km/h (3 Bft) 97,87 %
07.02.2022 05:00 2,6 C 2,2 C 0,0 C 92 % 1014,9 hPa 0,0 l/m 0 min 0 min 0 W/m 12,9 km/h (3 Bft) 95,74 %
07.02.2022 05:02 2,6 C 2,2 C 0,0 C 92 % 1015,0 hPa 0,0 l/m 0 min 0 min 0 W/m 19,3 km/h (3 Bft) 97,83 %
07.02.2022 05:04 2,6 C 2,2 C 0,0 C 92 % 1015,0 hPa 0,0 l/m 0 min 0 min 0 W/m 16,1 km/h (3 Bft) 97,87 %
07.02.2022 05:06 2,6 C 1,7 C 0,0 C 92 % 1015,0 hPa 0,0 l/m 0 min 0 min 0 W/m 16,1 km/h (3 Bft) 97,87 %
07.02.2022 05:08 2,6 C 1,7 C 0,0 C 92 % 1015,2 hPa 0,0 l/m 0 min 0 min 0 W/m 16,1 km/h (3 Bft) 97,87 %
07.02.2022 05:10 2,6 C 1,7 C 0,0 C 92 % 1015,1 hPa 0,0 l/m 0 min 0 min 0 W/m 16,1 km/h (3 Bft) 97,87 %
07.02.2022 05:12 2,6 C 2,2 C 0,0 C 92 % 1015,3 hPa 0,0 l/m 0 min 0 min 0 W/m 22,5 km/h (4 Bft) 97,83 %
07.02.2022 05:14 2,6 C 2,2 C 0,0 C 92 % 1015,3 hPa 0,0 l/m 0 min 0 min 0 W/m 19,3 km/h (3 Bft) 97,87 %
07.02.2022 05:16 2,6 C 2,2 C 0,0 C 92 % 1015,4 hPa 0,0 l/m 0 min 0 min 0 W/m 16,1 km/h (3 Bft) 97,87 %
07.02.2022 05:18 2,6 C 2,2 C 0,0 C 92 % 1015,3 hPa 0,0 l/m 0 min 0 min 0 W/m 19,3 km/h (3 Bft) 95,74 %
07.02.2022 05:20 2,6 C 2,2 C 0,0 C 92 % 1015,5 hPa 0,0 l/m 0 min 0 min 0 W/m 19,3 km/h (3 Bft) 95,74 %
07.02.2022 05:22 2,6 C 2,2 C 0,0 C 92 % 1015,5 hPa 0,0 l/m 0 min 0 min 0 W/m 16,1 km/h (3 Bft) 95,74 %
07.02.2022 05:24 2,6 C 2,2 C 0,0 C 92 % 1015,5 hPa 0,0 l/m 0 min 0 min 0 W/m 12,9 km/h (3 Bft) 100,00 %
07.02.2022 05:26 2,6 C 2,2 C 0,0 C 92 % 1015,6 hPa 0,0 l/m 0 min 0 min 0 W/m 16,1 km/h (3 Bft) 100,00 %
07.02.2022 05:28 2,7 C 2,2 C 0,0 C 92 % 1015,6 hPa 0,0 l/m 0 min 0 min 0 W/m 12,9 km/h (3 Bft) 97,87 %
07.02.2022 05:30 2,7 C 2,2 C 0,0 C 92 % 1015,8 hPa 0,0 l/m 0 min 0 min 0 W/m 16,1 km/h (3 Bft) 97,87 %
07.02.2022 05:32 2,7 C 2,2 C 0,0 C 92 % 1015,7 hPa 0,0 l/m 0 min 0 min 0 W/m 16,1 km/h (3 Bft) 97,87 %
07.02.2022 05:34 2,7 C 2,2 C 0,0 C 92 % 1015,8 hPa 0,0 l/m 0 min 0 min 0 W/m 19,3 km/h (3 Bft) 97,87 %
07.02.2022 05:36 2,7 C 2,2 C 0,0 C 92 % 1015,8 hPa 0,0 l/m 0 min 0 min 0 W/m 19,3 km/h (3 Bft) 93,48 %
07.02.2022 05:38 2,7 C 2,2 C 0,0 C 92 % 1015,9 hPa 0,0 l/m 0 min 0 min 0 W/m 16,1 km/h (3 Bft) 95,74 %
07.02.2022 05:40 2,7 C 2,2 C 0,0 C 92 % 1015,9 hPa 0,0 l/m 0 min 0 min 0 W/m 16,1 km/h (3 Bft) 97,87 %
07.02.2022 05:42 2,7 C 2,2 C 0,0 C 92 % 1016,0 hPa 0,0 l/m 0 min 0 min 0 W/m 19,3 km/h (3 Bft) 95,74 %
07.02.2022 05:44 2,7 C 2,2 C 0,0 C 92 % 1016,1 hPa 0,0 l/m 0 min 0 min 0 W/m 16,1 km/h (3 Bft) 97,87 %
07.02.2022 05:46 2,7 C 2,2 C 0,0 C 92 % 1016,2 hPa 0,0 l/m 0 min 0 min 0 W/m 16,1 km/h (3 Bft) 97,87 %
07.02.2022 05:48 2,8 C 2,2 C 0,0 C 92 % 1016,2 hPa 0,0 l/m 0 min 0 min 0 W/m 16,1 km/h (3 Bft) 97,83 %
07.02.2022 05:50 2,8 C 2,2 C 0,0 C 92 % 1016,3 hPa 0,0 l/m 0 min 0 min 0 W/m 16,1 km/h (3 Bft) 100,00 %
07.02.2022 05:52 2,8 C 2,2 C 0,0 C 92 % 1016,3 hPa 0,0 l/m 0 min 0 min 0 W/m 16,1 km/h (3 Bft) 97,87 %
07.02.2022 05:54 2,8 C 2,2 C 0,0 C 92 % 1016,4 hPa 0,0 l/m 0 min 0 min 0 W/m 16,1 km/h (3 Bft) 97,87 %
07.02.2022 05:56 2,8 C 2,2 C 0,6 C 92 % 1016,5 hPa 0,0 l/m 0 min 0 min 0 W/m 16,1 km/h (3 Bft) 97,87 %
07.02.2022 05:58 2,9 C 2,2 C 0,6 C 92 % 1016,5 hPa 0,0 l/m 0 min 0 min 0 W/m 19,3 km/h (3 Bft) 97,87 %
07.02.2022 06:00 2,9 C 2,8 C 0,6 C 92 % 1016,6 hPa 0,0 l/m 0 min 0 min 0 W/m 22,5 km/h (4 Bft) 95,65 %
07.02.2022 06:02 3,0 C 2,8 C 0,6 C 92 % 1016,5 hPa 0,0 l/m 0 min 0 min 0 W/m 19,3 km/h (3 Bft) 93,62 %
07.02.2022 06:04 3,1 C 2,8 C 0,6 C 92 % 1016,5 hPa 0,0 l/m 0 min 0 min 0 W/m 12,9 km/h (3 Bft) 95,74 %
07.02.2022 06:06 3,1 C 2,8 C 0,6 C 91 % 1016,7 hPa 0,0 l/m 0 min 0 min 0 W/m 19,3 km/h (3 Bft) 100,00 %
07.02.2022 06:08 3,1 C 2,8 C 0,6 C 91 % 1016,7 hPa 0,0 l/m 0 min 0 min 0 W/m 16,1 km/h (3 Bft) 97,87 %
07.02.2022 06:10 3,1 C 2,8 C 0,6 C 91 % 1016,7 hPa 0,0 l/m 0 min 0 min 0 W/m 19,3 km/h (3 Bft) 100,00 %
07.02.2022 06:12 3,2 C 2,8 C 0,6 C 91 % 1016,8 hPa 0,0 l/m 0 min 0 min 0 W/m 19,3 km/h (3 Bft) 100,00 %
07.02.2022 06:14 3,2 C 2,8 C 0,6 C 91 % 1016,8 hPa 0,0 l/m 0 min 0 min 0 W/m 12,9 km/h (3 Bft) 100,00 %
07.02.2022 06:16 3,2 C 2,8 C 0,6 C 91 % 1016,8 hPa 0,0 l/m 0 min 0 min 0 W/m 19,3 km/h (3 Bft) 100,00 %
07.02.2022 06:18 3,3 C 2,8 C 0,6 C 91 % 1017,0 hPa 0,0 l/m 0 min 0 min 0 W/m 16,1 km/h (3 Bft) 100,00 %
07.02.2022 06:20 3,3 C 2,8 C 0,6 C 91 % 1017,0 hPa 0,0 l/m 0 min 0 min 0 W/m 12,9 km/h (3 Bft) 100,00 %
07.02.2022 06:22 3,3 C 2,8 C 0,6 C 91 % 1017,1 hPa 0,0 l/m 0 min 0 min 0 W/m 12,9 km/h (3 Bft) 97,87 %
07.02.2022 06:24 3,3 C 2,8 C 0,6 C 91 % 1017,1 hPa 0,0 l/m 0 min 0 min 0 W/m 16,1 km/h (3 Bft) 97,83 %
07.02.2022 06:26 3,3 C 2,8 C 0,6 C 91 % 1017,1 hPa 0,0 l/m 0 min 0 min 0 W/m 12,9 km/h (3 Bft) 97,87 %
07.02.2022 06:28 3,3 C 2,8 C 0,6 C 91 % 1017,2 hPa 0,0 l/m 0 min 0 min 0 W/m 19,3 km/h (3 Bft) 97,87 %
07.02.2022 06:30 3,3 C 2,8 C 0,6 C 91 % 1017,2 hPa 0,0 l/m 0 min 0 min 0 W/m 19,3 km/h (3 Bft) 97,87 %
07.02.2022 06:32 3,3 C 2,8 C 0,6 C 91 % 1017,2 hPa 0,0 l/m 0 min 0 min 0 W/m 22,5 km/h (4 Bft) 97,87 %
07.02.2022 06:34 3,4 C 2,8 C 0,6 C 91 % 1017,3 hPa 0,0 l/m 0 min 0 min 0 W/m 16,1 km/h (3 Bft) 97,87 %
07.02.2022 06:36 3,4 C 2,8 C 0,6 C 91 % 1017,4 hPa 0,0 l/m 0 min 0 min 0 W/m 19,3 km/h (3 Bft) 97,83 %
07.02.2022 06:38 3,4 C 2,8 C 0,6 C 91 % 1017,4 hPa 0,0 l/m 0 min 0 min 0 W/m 19,3 km/h (3 Bft) 97,87 %
07.02.2022 06:40 3,4 C 2,8 C 0,6 C 91 % 1017,5 hPa 0,0 l/m 0 min 0 min 0 W/m 22,5 km/h (4 Bft) 97,87 %
07.02.2022 06:42 3,4 C 2,8 C 0,6 C 91 % 1017,4 hPa 0,0 l/m 0 min 0 min 0 W/m 25,7 km/h (4 Bft) 95,74 %
07.02.2022 06:44 3,4 C 2,8 C 0,6 C 91 % 1017,4 hPa 0,0 l/m 0 min 0 min 0 W/m 25,7 km/h (4 Bft) 95,74 %
07.02.2022 06:46 3,5 C 2,8 C 1,1 C 91 % 1017,5 hPa 0,0 l/m 0 min 0 min 0 W/m 22,5 km/h (4 Bft) 93,62 %
07.02.2022 06:48 3,5 C 2,8 C 1,1 C 91 % 1017,6 hPa 0,0 l/m 0 min 0 min 0 W/m 22,5 km/h (4 Bft) 93,48 %
07.02.2022 06:50 3,6 C 3,3 C 1,1 C 91 % 1017,5 hPa 0,0 l/m 0 min 0 min 0 W/m 19,3 km/h (3 Bft) 95,74 %
07.02.2022 06:52 3,6 C 3,3 C 1,1 C 91 % 1017,6 hPa 0,0 l/m 0 min 0 min 0 W/m 19,3 km/h (3 Bft) 95,74 %
07.02.2022 06:54 3,7 C 3,3 C 1,1 C 91 % 1017,8 hPa 0,0 l/m 0 min 0 min 0 W/m 16,1 km/h (3 Bft) 95,74 %
07.02.2022 06:56 3,7 C 3,3 C 1,1 C 91 % 1017,8 hPa 0,0 l/m 0 min 0 min 0 W/m 19,3 km/h (3 Bft) 93,62 %
07.02.2022 06:58 3,7 C 3,3 C 1,1 C 90 % 1017,8 hPa 0,0 l/m 0 min 0 min 0 W/m 22,5 km/h (4 Bft) 95,65 %
07.02.2022 07:00 3,8 C 3,3 C 1,1 C 90 % 1017,9 hPa 0,0 l/m 0 min 0 min 0 W/m 19,3 km/h (3 Bft) 95,74 %
07.02.2022 07:02 3,8 C 3,3 C 1,1 C 90 % 1018,0 hPa 0,0 l/m 0 min 0 min 0 W/m 29,0 km/h (5 Bft) 95,74 %
07.02.2022 07:04 3,7 C 3,3 C 1,1 C 90 % 1018,1 hPa 0,0 l/m 0 min 0 min 0 W/m 25,7 km/h (4 Bft) 93,62 %
07.02.2022 07:06 3,7 C 3,3 C 1,1 C 90 % 1018,2 hPa 0,0 l/m 0 min 0 min 0 W/m 29,0 km/h (5 Bft) 97,87 %
07.02.2022 07:08 3,7 C 3,3 C 1,1 C 90 % 1018,2 hPa 0,0 l/m 0 min 0 min 0 W/m 25,7 km/h (4 Bft) 95,74 %
07.02.2022 07:10 3,7 C 2,8 C 1,1 C 90 % 1018,3 hPa 0,0 l/m 0 min 0 min 0 W/m 25,7 km/h (4 Bft) 97,83 %
07.02.2022 07:12 3,7 C 2,8 C 1,1 C 90 % 1018,4 hPa 0,0 l/m 0 min 0 min 0 W/m 48,3 km/h (6 Bft) 97,87 %
07.02.2022 07:14 3,7 C 2,8 C 1,1 C 90 % 1018,3 hPa 0,0 l/m 0 min 0 min 0 W/m 22,5 km/h (4 Bft) 97,87 %
07.02.2022 07:16 3,7 C 2,8 C 1,1 C 90 % 1018,3 hPa 0,0 l/m 0 min 0 min 0 W/m 19,3 km/h (3 Bft) 100,00 %
07.02.2022 07:18 3,7 C 2,8 C 1,1 C 90 % 1018,3 hPa 0,0 l/m 0 min 0 min 0 W/m 22,5 km/h (4 Bft) 97,87 %
07.02.2022 07:20 3,7 C 2,8 C 1,1 C 90 % 1018,4 hPa 0,0 l/m 0 min 0 min 0 W/m 25,7 km/h (4 Bft) 100,00 %
07.02.2022 07:22 3,7 C 2,8 C 1,1 C 90 % 1018,5 hPa 0,0 l/m 0 min 0 min 0 W/m 19,3 km/h (3 Bft) 100,00 %
07.02.2022 07:24 3,7 C 3,3 C 1,1 C 90 % 1018,5 hPa 0,0 l/m 0 min 0 min 0 W/m 12,9 km/h (3 Bft) 100,00 %
07.02.2022 07:26 3,7 C 2,8 C 1,1 C 90 % 1018,6 hPa 0,0 l/m 0 min 0 min 0 W/m 16,1 km/h (3 Bft) 100,00 %
07.02.2022 07:28 3,7 C 2,8 C 1,1 C 90 % 1018,6 hPa 0,0 l/m 0 min 0 min 0 W/m 19,3 km/h (3 Bft) 100,00 %
07.02.2022 07:30 3,7 C 2,8 C 1,1 C 90 % 1018,6 hPa 0,0 l/m 0 min 0 min 0 W/m 12,9 km/h (3 Bft) 100,00 %
07.02.2022 07:32 3,7 C 2,8 C 1,1 C 90 % 1018,6 hPa 0,0 l/m 0 min 0 min 0 W/m 16,1 km/h (3 Bft) 100,00 %
07.02.2022 07:34 3,7 C 2,8 C 1,1 C 90 % 1018,7 hPa 0,0 l/m 0 min 0 min 0 W/m 22,5 km/h (4 Bft) 100,00 %
07.02.2022 07:36 3,7 C 3,3 C 1,1 C 90 % 1018,7 hPa 0,0 l/m 0 min 0 min 0 W/m 16,1 km/h (3 Bft) 100,00 %
07.02.2022 07:38 3,7 C 3,3 C 1,1 C 90 % 1018,8 hPa 0,0 l/m 0 min 0 min 0 W/m 16,1 km/h (3 Bft) 100,00 %
07.02.2022 07:40 3,7 C 3,3 C 1,1 C 90 % 1018,8 hPa 0,0 l/m 0 min 0 min 0 W/m 12,9 km/h (3 Bft) 97,87 %
07.02.2022 07:42 3,7 C 3,3 C 1,1 C 91 % 1018,9 hPa 0,0 l/m 0 min 0 min 0 W/m 16,1 km/h (3 Bft) 100,00 %
07.02.2022 07:44 3,7 C 3,3 C 1,1 C 91 % 1019,0 hPa 0,0 l/m 0 min 0 min 0 W/m 25,7 km/h (4 Bft) 100,00 %
07.02.2022 07:46 3,7 C 3,3 C 1,1 C 91 % 1019,1 hPa 0,0 l/m 0 min 0 min 0 W/m 12,9 km/h (3 Bft) 97,83 %
07.02.2022 07:48 3,7 C 3,3 C 1,1 C 91 % 1019,1 hPa 0,0 l/m 0 min 0 min 0 W/m 19,3 km/h (3 Bft) 97,87 %
07.02.2022 07:50 3,7 C 3,3 C 1,1 C 91 % 1019,2 hPa 0,0 l/m 0 min 0 min 0 W/m 12,9 km/h (3 Bft) 97,87 %
07.02.2022 07:52 3,7 C 3,3 C 1,1 C 91 % 1019,3 hPa 0,0 l/m 0 min 0 min 0 W/m 19,3 km/h (3 Bft) 97,87 %
07.02.2022 07:54 3,7 C 2,8 C 1,1 C 91 % 1019,3 hPa 0,0 l/m 0 min 0 min 0 W/m 16,1 km/h (3 Bft) 97,87 %
07.02.2022 07:56 3,7 C 2,8 C 1,1 C 91 % 1019,3 hPa 0,0 l/m 0 min 0 min 0 W/m 19,3 km/h (3 Bft) 97,87 %
07.02.2022 07:58 3,7 C 2,8 C 0,6 C 91 % 1019,4 hPa 0,0 l/m 0 min 0 min 0 W/m 29,0 km/h (5 Bft) 97,83 %
07.02.2022 08:00 3,7 C 2,8 C 1,1 C 91 % 1019,4 hPa 0,0 l/m 0 min 0 min 0 W/m 29,0 km/h (5 Bft) 100,00 %
07.02.2022 08:02 3,7 C 3,3 C 1,1 C 91 % 1019,5 hPa 0,0 l/m 0 min 0 min 0 W/m 6,4 km/h (2 Bft) 97,30 %
07.02.2022 08:04 3,7 C 3,3 C 1,1 C 91 % 1019,6 hPa 0,0 l/m 0 min 0 min 0 W/m 19,3 km/h (3 Bft) 97,87 %
07.02.2022 08:06 3,7 C 2,8 C 1,1 C 91 % 1019,6 hPa 0,0 l/m 0 min 0 min 0 W/m 12,9 km/h (3 Bft) 95,74 %
07.02.2022 08:08 3,7 C 3,3 C 1,1 C 91 % 1019,7 hPa 0,0 l/m 0 min 0 min 2 W/m 12,9 km/h (3 Bft) 100,00 %
07.02.2022 08:10 3,7 C 2,8 C 1,1 C 91 % 1019,7 hPa 0,0 l/m 0 min 0 min 5 W/m 12,9 km/h (3 Bft) 100,00 %
07.02.2022 08:12 3,7 C 2,8 C 1,1 C 91 % 1019,9 hPa 0,0 l/m 0 min 0 min 5 W/m 16,1 km/h (3 Bft) 100,00 %
07.02.2022 08:14 3,7 C 3,3 C 1,1 C 91 % 1019,9 hPa 0,0 l/m 0 min 0 min 7 W/m 19,3 km/h (3 Bft) 95,74 %
07.02.2022 08:16 3,7 C 3,3 C 1,1 C 91 % 1019,9 hPa 0,0 l/m 0 min 0 min 7 W/m 12,9 km/h (3 Bft) 95,74 %
07.02.2022 08:18 3,7 C 3,3 C 1,1 C 91 % 1019,9 hPa 0,0 l/m 0 min 0 min 7 W/m 12,9 km/h (3 Bft) 97,87 %
07.02.2022 08:20 3,7 C 3,3 C 1,1 C 91 % 1020,0 hPa 0,0 l/m 0 min 0 min 9 W/m 19,3 km/h (3 Bft) 97,87 %
07.02.2022 08:22 3,7 C 3,3 C 1,1 C 91 % 1020,0 hPa 0,0 l/m 0 min 0 min 9 W/m 16,1 km/h (3 Bft) 93,48 %
07.02.2022 08:24 3,7 C 3,3 C 1,1 C 91 % 1020,0 hPa 0,0 l/m 0 min 0 min 9 W/m 19,3 km/h (3 Bft) 97,87 %
07.02.2022 08:26 3,7 C 3,3 C 1,1 C 91 % 1020,0 hPa 0,0 l/m 0 min 0 min 9 W/m 12,9 km/h (3 Bft) 97,87 %
07.02.2022 08:28 3,7 C 3,3 C 1,1 C 91 % 1020,0 hPa 0,0 l/m 0 min 0 min 9 W/m 12,9 km/h (3 Bft) 97,87 %
07.02.2022 08:30 3,7 C 3,3 C 1,1 C 91 % 1020,1 hPa 0,0 l/m 0 min 0 min 10 W/m 12,9 km/h (3 Bft) 97,87 %
07.02.2022 08:32 3,7 C 3,3 C 1,1 C 91 % 1020,1 hPa 0,0 l/m 0 min 0 min 12 W/m 12,9 km/h (3 Bft) 97,87 %
07.02.2022 08:34 3,7 C 3,3 C 1,1 C 91 % 1020,2 hPa 0,0 l/m 0 min 0 min 13 W/m 12,9 km/h (3 Bft) 95,65 %
07.02.2022 08:36 3,7 C 3,3 C 1,1 C 92 % 1020,2 hPa 0,0 l/m 0 min 0 min 14 W/m 9,7 km/h (2 Bft) 95,74 %
07.02.2022 08:38 3,6 C 3,3 C 1,1 C 92 % 1020,2 hPa 0,0 l/m 0 min 0 min 14 W/m 9,7 km/h (2 Bft) 97,87 %
07.02.2022 08:40 3,7 C 3,3 C 1,1 C 92 % 1020,3 hPa 0,0 l/m 0 min 0 min 14 W/m 12,9 km/h (3 Bft) 97,87 %
07.02.2022 08:42 3,6 C 3,3 C 1,1 C 92 % 1020,3 hPa 0,0 l/m 0 min 0 min 16 W/m 16,1 km/h (3 Bft) 95,74 %
07.02.2022 08:44 3,6 C 3,3 C 1,1 C 92 % 1020,4 hPa 0,0 l/m 0 min 0 min 20 W/m 16,1 km/h (3 Bft) 97,87 %
07.02.2022 08:46 3,7 C 3,3 C 1,1 C 92 % 1020,5 hPa 0,0 l/m 0 min 0 min 21 W/m 12,9 km/h (3 Bft) 97,83 %
07.02.2022 08:48 3,7 C 3,3 C 1,1 C 92 % 1020,6 hPa 0,0 l/m 0 min 0 min 18 W/m 12,9 km/h (3 Bft) 97,87 %
07.02.2022 08:50 3,7 C 3,3 C 1,1 C 92 % 1020,7 hPa 0,0 l/m 0 min 0 min 16 W/m 19,3 km/h (3 Bft) 97,87 %
07.02.2022 08:52 3,7 C 3,3 C 1,1 C 91 % 1020,8 hPa 0,0 l/m 0 min 0 min 19 W/m 19,3 km/h (3 Bft) 97,87 %
07.02.2022 08:54 3,7 C 3,3 C 1,1 C 91 % 1020,9 hPa 0,0 l/m 0 min 0 min 21 W/m 16,1 km/h (3 Bft) 97,87 %
07.02.2022 08:56 3,7 C 3,3 C 1,1 C 91 % 1021,0 hPa 0,0 l/m 0 min 0 min 23 W/m 9,7 km/h (2 Bft) 97,83 %
07.02.2022 08:58 3,7 C 3,3 C 1,1 C 91 % 1021,0 hPa 0,0 l/m 0 min 0 min 30 W/m 12,9 km/h (3 Bft) 97,87 %
07.02.2022 09:00 3,7 C 3,3 C 1,1 C 91 % 1021,0 hPa 0,0 l/m 0 min 0 min 33 W/m 16,1 km/h (3 Bft) 97,87 %
07.02.2022 09:02 3,7 C 3,3 C 1,1 C 91 % 1020,9 hPa 0,0 l/m 0 min 0 min 32 W/m 16,1 km/h (3 Bft) 93,62 %
07.02.2022 09:04 3,7 C 3,3 C 1,1 C 91 % 1020,9 hPa 0,0 l/m 0 min 0 min 32 W/m 12,9 km/h (3 Bft) 97,87 %
07.02.2022 09:06 3,7 C 3,3 C 1,1 C 91 % 1021,0 hPa 0,0 l/m 0 min 0 min 47 W/m 16,1 km/h (3 Bft) 100,00 %
07.02.2022 09:08 3,7 C 3,3 C 1,1 C 91 % 1021,1 hPa 0,0 l/m 0 min 0 min 58 W/m 9,7 km/h (2 Bft) 100,00 %
07.02.2022 09:10 3,7 C 3,3 C 1,1 C 91 % 1021,2 hPa 0,0 l/m 2 min 0 min 77 W/m 12,9 km/h (3 Bft) 100,00 %
07.02.2022 09:12 3,7 C 3,3 C 1,1 C 91 % 1021,3 hPa 0,0 l/m 2 min 0 min 78 W/m 12,9 km/h (3 Bft) 100,00 %
07.02.2022 09:14 3,7 C 3,3 C 1,1 C 91 % 1021,4 hPa 0,0 l/m 2 min 0 min 82 W/m 12,9 km/h (3 Bft) 100,00 %
07.02.2022 09:16 3,7 C 3,9 C 1,1 C 91 % 1021,4 hPa 0,0 l/m 2 min 0 min 97 W/m 16,1 km/h (3 Bft) 100,00 %
07.02.2022 09:18 3,7 C 3,9 C 1,1 C 91 % 1021,5 hPa 0,0 l/m 2 min 0 min 103 W/m 9,7 km/h (2 Bft) 97,87 %
07.02.2022 09:20 3,8 C 3,9 C 1,1 C 91 % 1021,6 hPa 0,0 l/m 0 min 0 min 81 W/m 16,1 km/h (3 Bft) 100,00 %
07.02.2022 09:22 3,8 C 3,9 C 1,1 C 92 % 1021,7 hPa 0,0 l/m 0 min 0 min 55 W/m 12,9 km/h (3 Bft) 100,00 %
07.02.2022 09:24 3,9 C 3,9 C 1,1 C 92 % 1021,8 hPa 0,0 l/m 0 min 0 min 47 W/m 16,1 km/h (3 Bft) 97,87 %
07.02.2022 09:26 3,9 C 3,9 C 1,1 C 92 % 1021,9 hPa 0,0 l/m 0 min 0 min 61 W/m 16,1 km/h (3 Bft) 97,87 %
07.02.2022 09:28 3,9 C 3,9 C 1,1 C 92 % 1021,9 hPa 0,0 l/m 0 min 0 min 77 W/m 12,9 km/h (3 Bft) 97,87 %
07.02.2022 09:30 3,9 C 3,9 C 1,1 C 92 % 1022,0 hPa 0,0 l/m 0 min 0 min 85 W/m 12,9 km/h (3 Bft) 97,87 %
07.02.2022 09:32 3,9 C 3,9 C 1,7 C 92 % 1022,0 hPa 0,0 l/m 2 min 0 min 103 W/m 16,1 km/h (3 Bft) 97,83 %
07.02.2022 09:34 4,0 C 3,9 C 1,7 C 92 % 1022,1 hPa 0,0 l/m 2 min 0 min 116 W/m 12,9 km/h (3 Bft) 95,74 %
07.02.2022 09:36 4,1 C 4,4 C 1,7 C 92 % 1022,2 hPa 0,0 l/m 2 min 0 min 138 W/m 12,9 km/h (3 Bft) 97,87 %
07.02.2022 09:38 4,1 C 4,4 C 1,7 C 92 % 1022,2 hPa 0,0 l/m 2 min 0 min 161 W/m 12,9 km/h (3 Bft) 97,87 %
07.02.2022 09:40 4,2 C 4,4 C 1,7 C 92 % 1022,2 hPa 0,0 l/m 2 min 0 min 124 W/m 12,9 km/h (3 Bft) 95,74 %
07.02.2022 09:42 4,3 C 4,4 C 1,7 C 92 % 1022,2 hPa 0,0 l/m 0 min 0 min 94 W/m 16,1 km/h (3 Bft) 97,87 %
07.02.2022 09:44 4,3 C 4,4 C 1,7 C 92 % 1022,2 hPa 0,0 l/m 0 min 0 min 88 W/m 16,1 km/h (3 Bft) 97,83 %
07.02.2022 09:46 4,3 C 4,4 C 1,7 C 91 % 1022,3 hPa 0,0 l/m 0 min 0 min 85 W/m 16,1 km/h (3 Bft) 97,87 %
07.02.2022 09:48 4,3 C 4,4 C 1,7 C 91 % 1022,4 hPa 0,0 l/m 0 min 0 min 72 W/m 12,9 km/h (3 Bft) 97,87 %
07.02.2022 09:50 4,4 C 4,4 C 1,7 C 91 % 1022,3 hPa 0,0 l/m 0 min 0 min 62 W/m 16,1 km/h (3 Bft) 97,87 %
07.02.2022 09:52 4,4 C 3,9 C 1,7 C 91 % 1022,3 hPa 0,0 l/m 0 min 0 min 54 W/m 12,9 km/h (3 Bft) 97,87 %
07.02.2022 09:54 4,4 C 3,9 C 1,7 C 91 % 1022,3 hPa 0,0 l/m 0 min 0 min 57 W/m 19,3 km/h (3 Bft) 97,87 %
07.02.2022 09:56 4,4 C 3,9 C 1,7 C 91 % 1022,3 hPa 0,0 l/m 0 min 0 min 81 W/m 12,9 km/h (3 Bft) 95,65 %
07.02.2022 09:58 4,4 C 4,4 C 1,7 C 91 % 1022,4 hPa 0,0 l/m 0 min 0 min 105 W/m 12,9 km/h (3 Bft) 95,74 %
07.02.2022 10:00 4,4 C 4,4 C 1,7 C 91 % 1022,4 hPa 0,0 l/m 0 min 0 min 92 W/m 19,3 km/h (3 Bft) 97,87 %
07.02.2022 10:02 4,5 C 4,4 C 2,2 C 91 % 1022,4 hPa 0,0 l/m 0 min 0 min 98 W/m 19,3 km/h (3 Bft) 95,74 %
07.02.2022 10:04 4,6 C 4,4 C 2,2 C 91 % 1022,6 hPa 0,0 l/m 0 min 0 min 94 W/m 19,3 km/h (3 Bft) 97,87 %
07.02.2022 10:06 4,7 C 4,4 C 2,2 C 91 % 1022,6 hPa 0,0 l/m 0 min 0 min 83 W/m 12,9 km/h (3 Bft) 97,87 %
07.02.2022 10:08 4,8 C 4,4 C 2,2 C 91 % 1022,6 hPa 0,0 l/m 0 min 0 min 85 W/m 19,3 km/h (3 Bft) 95,65 %
07.02.2022 10:10 4,8 C 5,0 C 2,2 C 90 % 1022,6 hPa 0,0 l/m 0 min 0 min 103 W/m 22,5 km/h (4 Bft) 100,00 %
07.02.2022 10:12 4,9 C 5,0 C 2,2 C 90 % 1022,6 hPa 0,0 l/m 0 min 0 min 122 W/m 19,3 km/h (3 Bft) 100,00 %
07.02.2022 10:14 4,9 C 5,0 C 2,2 C 90 % 1022,5 hPa 0,0 l/m 0 min 0 min 121 W/m 19,3 km/h (3 Bft) 100,00 %
07.02.2022 10:16 5,0 C 5,6 C 2,2 C 90 % 1022,6 hPa 0,0 l/m 0 min 0 min 120 W/m 19,3 km/h (3 Bft) 97,87 %
07.02.2022 10:18 5,1 C 5,6 C 2,8 C 89 % 1022,7 hPa 0,0 l/m 2 min 0 min 149 W/m 16,1 km/h (3 Bft) 100,00 %
07.02.2022 10:20 5,1 C 6,7 C 2,8 C 89 % 1022,7 hPa 0,0 l/m 2 min 0 min 154 W/m 16,1 km/h (3 Bft) 97,83 %
07.02.2022 10:22 5,2 C 6,1 C 2,2 C 89 % 1022,7 hPa 0,0 l/m 2 min 0 min 171 W/m 25,7 km/h (4 Bft) 100,00 %
07.02.2022 10:24 5,2 C 6,7 C 2,2 C 89 % 1022,7 hPa 0,0 l/m 0 min 0 min 119 W/m 22,5 km/h (4 Bft) 97,87 %
07.02.2022 10:26 5,2 C 8,3 C 2,2 C 89 % 1022,7 hPa 0,0 l/m 2 min 0 min 237 W/m 16,1 km/h (3 Bft) 97,87 %
07.02.2022 10:28 5,3 C 9,4 C 2,2 C 89 % 1022,8 hPa 0,0 l/m 2 min 0 min 239 W/m 22,5 km/h (4 Bft) 97,87 %
07.02.2022 10:30 5,3 C 10,0 C 2,2 C 89 % 1022,8 hPa 0,0 l/m 2 min 0 min 268 W/m 19,3 km/h (3 Bft) 100,00 %
07.02.2022 10:32 5,4 C 10,0 C 2,8 C 89 % 1022,9 hPa 0,0 l/m 2 min 0 min 267 W/m 19,3 km/h (3 Bft) 100,00 %
07.02.2022 10:34 5,5 C 10,6 C 2,8 C 89 % 1022,9 hPa 0,0 l/m 2 min 0 min 271 W/m 19,3 km/h (3 Bft) 97,87 %
07.02.2022 10:36 5,6 C 10,6 C 2,8 C 88 % 1022,9 hPa 0,0 l/m 2 min 0 min 292 W/m 16,1 km/h (3 Bft) 95,74 %
07.02.2022 10:38 5,6 C 11,1 C 2,8 C 88 % 1022,9 hPa 0,0 l/m 2 min 0 min 289 W/m 22,5 km/h (4 Bft) 97,87 %
07.02.2022 10:40 5,7 C 11,1 C 2,8 C 88 % 1023,0 hPa 0,0 l/m 2 min 0 min 254 W/m 12,9 km/h (3 Bft) 95,74 %
07.02.2022 10:42 5,8 C 11,7 C 2,8 C 88 % 1023,1 hPa 0,0 l/m 2 min 0 min 291 W/m 12,9 km/h (3 Bft) 97,87 %
07.02.2022 10:44 5,8 C 11,1 C 2,8 C 88 % 1023,1 hPa 0,0 l/m 2 min 0 min 288 W/m 16,1 km/h (3 Bft) 95,65 %
07.02.2022 10:46 5,8 C 11,1 C 2,8 C 87 % 1023,3 hPa 0,0 l/m 2 min 0 min 301 W/m 12,9 km/h (3 Bft) 97,87 %
07.02.2022 10:48 5,9 C 11,1 C 2,8 C 87 % 1023,3 hPa 0,0 l/m 2 min 0 min 311 W/m 22,5 km/h (4 Bft) 97,87 %
07.02.2022 10:50 5,9 C 10,6 C 2,8 C 87 % 1023,3 hPa 0,0 l/m 2 min 0 min 318 W/m 22,5 km/h (4 Bft) 97,87 %
07.02.2022 10:52 5,9 C 10,6 C 2,8 C 87 % 1023,4 hPa 0,0 l/m 2 min 0 min 280 W/m 19,3 km/h (3 Bft) 97,87 %
07.02.2022 10:54 5,9 C 10,0 C 2,8 C 87 % 1023,4 hPa 0,0 l/m 2 min 0 min 309 W/m 29,0 km/h (5 Bft) 93,48 %
07.02.2022 10:56 6,0 C 10,0 C 2,8 C 87 % 1023,5 hPa 0,0 l/m 2 min 0 min 313 W/m 19,3 km/h (3 Bft) 97,87 %
07.02.2022 10:58 6,1 C 10,6 C 3,3 C 87 % 1023,5 hPa 0,0 l/m 2 min 0 min 344 W/m 16,1 km/h (3 Bft) 97,87 %
07.02.2022 11:00 6,1 C 10,0 C 3,3 C 87 % 1023,5 hPa 0,0 l/m 2 min 0 min 366 W/m 19,3 km/h (3 Bft) 93,62 %
07.02.2022 11:02 6,1 C 7,8 C 3,3 C 87 % 1023,5 hPa 0,0 l/m 2 min 0 min 277 W/m 22,5 km/h (4 Bft) 97,14 %
07.02.2022 11:04 6,1 C 6,7 C 3,3 C 87 % 1023,6 hPa 0,0 l/m 0 min 0 min 131 W/m 25,7 km/h (4 Bft) 95,74 %
07.02.2022 11:06 6,1 C 6,7 C 3,3 C 87 % 1023,6 hPa 0,0 l/m 0 min 0 min 145 W/m 22,5 km/h (4 Bft) 93,62 %
07.02.2022 11:08 6,0 C 6,7 C 3,3 C 87 % 1023,8 hPa 0,0 l/m 0 min 0 min 135 W/m 22,5 km/h (4 Bft) 93,62 %
07.02.2022 11:10 5,9 C 6,1 C 3,3 C 87 % 1023,8 hPa 0,0 l/m 0 min 0 min 132 W/m 19,3 km/h (3 Bft) 93,48 %
07.02.2022 11:12 5,9 C 7,2 C 3,3 C 87 % 1023,9 hPa 0,0 l/m 2 min 0 min 181 W/m 19,3 km/h (3 Bft) 95,74 %
07.02.2022 11:14 5,9 C 7,8 C 3,3 C 87 % 1023,9 hPa 0,0 l/m 2 min 0 min 252 W/m 12,9 km/h (3 Bft) 93,62 %
07.02.2022 11:16 5,9 C 7,2 C 3,3 C 87 % 1024,0 hPa 0,0 l/m 0 min 0 min 134 W/m 19,3 km/h (3 Bft) 95,74 %
07.02.2022 11:18 5,9 C 6,7 C 3,3 C 87 % 1024,0 hPa 0,0 l/m 0 min 0 min 123 W/m 19,3 km/h (3 Bft) 95,74 %
07.02.2022 11:20 5,9 C 6,1 C 2,8 C 87 % 1024,0 hPa 0,0 l/m 0 min 0 min 102 W/m 19,3 km/h (3 Bft) 97,87 %
07.02.2022 11:22 5,9 C 6,1 C 2,8 C 87 % 1024,0 hPa 0,0 l/m 0 min 0 min 102 W/m 16,1 km/h (3 Bft) 97,83 %
07.02.2022 11:24 5,9 C 6,7 C 2,8 C 87 % 1024,0 hPa 0,0 l/m 2 min 0 min 206 W/m 12,9 km/h (3 Bft) 95,74 %
07.02.2022 11:26 5,9 C 8,3 C 2,8 C 87 % 1024,1 hPa 0,0 l/m 2 min 0 min 294 W/m 32,2 km/h (5 Bft) 97,87 %
07.02.2022 11:28 6,0 C 7,8 C 3,3 C 87 % 1024,2 hPa 0,0 l/m 2 min 0 min 248 W/m 16,1 km/h (3 Bft) 95,74 %
07.02.2022 11:30 6,1 C 7,2 C 3,3 C 87 % 1024,3 hPa 0,0 l/m 2 min 0 min 199 W/m 16,1 km/h (3 Bft) 97,87 %
07.02.2022 11:32 6,1 C 7,8 C 3,3 C 88 % 1024,3 hPa 0,0 l/m 2 min 0 min 269 W/m 12,9 km/h (3 Bft) 97,87 %
07.02.2022 11:34 6,2 C 7,2 C 3,3 C 88 % 1024,5 hPa 0,0 l/m 0 min 0 min 124 W/m 16,1 km/h (3 Bft) 95,65 %
07.02.2022 11:36 6,2 C 6,7 C 3,3 C 87 % 1024,5 hPa 0,0 l/m 0 min 0 min 106 W/m 19,3 km/h (3 Bft) 97,87 %
07.02.2022 11:38 6,2 C 6,7 C 3,3 C 87 % 1024,6 hPa 0,0 l/m 0 min 0 min 120 W/m 16,1 km/h (3 Bft) 97,87 %
07.02.2022 11:40 6,2 C 6,7 C 3,3 C 87 % 1024,6 hPa 0,0 l/m 0 min 0 min 178 W/m 22,5 km/h (4 Bft) 95,74 %
07.02.2022 11:42 6,2 C 6,7 C 3,3 C 87 % 1024,6 hPa 0,0 l/m 0 min 0 min 183 W/m 12,9 km/h (3 Bft) 95,74 %
07.02.2022 11:44 6,3 C 6,1 C 3,3 C 87 % 1024,6 hPa 0,0 l/m 0 min 0 min 113 W/m 12,9 km/h (3 Bft) 97,87 %
07.02.2022 11:46 6,2 C 6,1 C 3,3 C 87 % 1024,6 hPa 0,0 l/m 0 min 0 min 130 W/m 12,9 km/h (3 Bft) 97,83 %
07.02.2022 11:48 6,3 C 6,1 C 3,3 C 87 % 1024,6 hPa 0,0 l/m 0 min 0 min 153 W/m 16,1 km/h (3 Bft) 97,87 %
07.02.2022 11:50 6,3 C 6,1 C 3,3 C 88 % 1024,6 hPa 0,0 l/m 0 min 0 min 174 W/m 12,9 km/h (3 Bft) 97,87 %
07.02.2022 11:52 6,3 C 6,1 C 3,3 C 87 % 1024,7 hPa 0,0 l/m 0 min 0 min 123 W/m 16,1 km/h (3 Bft) 97,87 %
07.02.2022 11:54 6,3 C 6,1 C 3,3 C 87 % 1024,7 hPa 0,0 l/m 0 min 0 min 110 W/m 12,9 km/h (3 Bft) 97,87 %
07.02.2022 11:56 6,2 C 6,1 C 3,3 C 87 % 1024,8 hPa 0,0 l/m 0 min 0 min 114 W/m 22,5 km/h (4 Bft) 95,74 %
07.02.2022 11:58 6,2 C 6,1 C 3,3 C 87 % 1024,8 hPa 0,0 l/m 0 min 0 min 81 W/m 12,9 km/h (3 Bft) 97,83 %
07.02.2022 12:00 6,2 C 5,6 C 2,8 C 87 % 1024,9 hPa 0,0 l/m 0 min 0 min 85 W/m 25,7 km/h (4 Bft) 97,87 %
07.02.2022 12:02 6,1 C 5,6 C 2,8 C 87 % 1024,8 hPa 0,0 l/m 0 min 0 min 105 W/m 22,5 km/h (4 Bft) 95,74 %
07.02.2022 12:04 6,1 C 5,6 C 2,8 C 87 % 1024,9 hPa 0,0 l/m 0 min 0 min 105 W/m 16,1 km/h (3 Bft) 93,62 %
07.02.2022 12:08 6,1 C 5,6 C 2,8 C 88 % 1025,0 hPa 0,0 l/m 0 min 0 min 108 W/m 25,7 km/h (4 Bft) 95,74 %
07.02.2022 12:10 6,1 C 6,1 C 2,8 C 87 % 1025,1 hPa 0,0 l/m 0 min 0 min 133 W/m 16,1 km/h (3 Bft) 93,48 %
07.02.2022 12:12 6,1 C 6,1 C 2,8 C 87 % 1025,1 hPa 0,0 l/m 0 min 0 min 137 W/m 16,1 km/h (3 Bft) 93,62 %
07.02.2022 12:14 6,1 C 6,1 C 2,8 C 87 % 1025,1 hPa 0,0 l/m 0 min 0 min 127 W/m 32,2 km/h (5 Bft) 95,74 %
07.02.2022 12:16 6,1 C 6,1 C 3,3 C 87 % 1025,1 hPa 0,0 l/m 0 min 0 min 139 W/m 25,7 km/h (4 Bft) 95,74 %
07.02.2022 12:18 6,1 C 6,1 C 3,3 C 87 % 1025,0 hPa 0,0 l/m 0 min 0 min 160 W/m 25,7 km/h (4 Bft) 95,74 %
07.02.2022 12:20 6,2 C 6,1 C 3,3 C 87 % 1025,0 hPa 0,0 l/m 0 min 0 min 157 W/m 16,1 km/h (3 Bft) 97,83 %
07.02.2022 12:22 6,2 C 6,1 C 3,3 C 87 % 1025,1 hPa 0,0 l/m 0 min 0 min 160 W/m 22,5 km/h (4 Bft) 93,62 %
07.02.2022 12:24 6,3 C 6,7 C 3,3 C 87 % 1025,1 hPa 0,0 l/m 2 min 0 min 221 W/m 16,1 km/h (3 Bft) 97,87 %
07.02.2022 12:26 6,4 C 7,8 C 3,9 C 87 % 1025,2 hPa 0,0 l/m 2 min 0 min 250 W/m 12,9 km/h (3 Bft) 97,87 %
07.02.2022 12:28 6,5 C 7,2 C 3,9 C 87 % 1025,1 hPa 0,0 l/m 0 min 0 min 180 W/m 19,3 km/h (3 Bft) 97,87 %
07.02.2022 12:30 6,6 C 7,2 C 3,9 C 87 % 1025,2 hPa 0,0 l/m 0 min 0 min 145 W/m 16,1 km/h (3 Bft) 97,87 %
07.02.2022 12:32 6,6 C 6,7 C 3,3 C 87 % 1025,2 hPa 0,0 l/m 0 min 0 min 168 W/m 16,1 km/h (3 Bft) 97,83 %
07.02.2022 12:34 6,6 C 6,7 C 3,3 C 87 % 1025,1 hPa 0,0 l/m 0 min 0 min 173 W/m 16,1 km/h (3 Bft) 98,11 %
07.02.2022 12:36 6,6 C 6,7 C 3,3 C 87 % 1025,2 hPa 0,0 l/m 0 min 0 min 191 W/m 29,0 km/h (5 Bft) 96,23 %
07.02.2022 12:38 6,6 C 6,7 C 3,3 C 86 % 1025,3 hPa 0,0 l/m 0 min 0 min 195 W/m 19,3 km/h (3 Bft) 100,00 %
07.02.2022 12:40 6,6 C 6,7 C 3,3 C 86 % 1025,3 hPa 0,0 l/m 0 min 0 min 188 W/m 25,7 km/h (4 Bft) 95,74 %
07.02.2022 12:42 6,6 C 6,7 C 3,3 C 86 % 1025,4 hPa 0,0 l/m 0 min 0 min 188 W/m 12,9 km/h (3 Bft) 96,23 %
07.02.2022 12:44 6,6 C 6,7 C 3,9 C 86 % 1025,4 hPa 0,0 l/m 2 min 0 min 222 W/m 16,1 km/h (3 Bft) 95,74 %
07.02.2022 12:46 6,6 C 6,7 C 3,9 C 86 % 1025,4 hPa 0,0 l/m 2 min 0 min 218 W/m 12,9 km/h (3 Bft) 100,00 %
07.02.2022 12:48 6,7 C 7,8 C 3,9 C 87 % 1025,4 hPa 0,0 l/m 2 min 0 min 242 W/m 16,1 km/h (3 Bft) 100,00 %
07.02.2022 12:50 6,7 C 8,3 C 3,9 C 87 % 1025,4 hPa 0,0 l/m 2 min 0 min 266 W/m 12,9 km/h (3 Bft) 97,87 %
07.02.2022 12:52 6,7 C 7,8 C 3,9 C 86 % 1025,4 hPa 0,0 l/m 2 min 0 min 226 W/m 19,3 km/h (3 Bft) 95,74 %
07.02.2022 12:54 6,7 C 7,2 C 3,3 C 86 % 1025,5 hPa 0,0 l/m 2 min 0 min 229 W/m 25,7 km/h (4 Bft) 53,33 %
07.02.2022 12:56 6,6 C 6,7 C 3,3 C 86 % 1025,4 hPa 0,0 l/m 0 min 0 min 144 W/m 29,0 km/h (5 Bft) 97,87 %
07.02.2022 12:58 6,5 C 6,7 C 3,3 C 86 % 1025,4 hPa 0,0 l/m 0 min 0 min 159 W/m 16,1 km/h (3 Bft) 97,87 %
07.02.2022 13:00 6,4 C 6,1 C 3,3 C 86 % 1025,4 hPa 0,0 l/m 0 min 0 min 163 W/m 19,3 km/h (3 Bft) 95,74 %
07.02.2022 13:02 6,4 C 6,1 C 3,3 C 86 % 1025,5 hPa 0,0 l/m 0 min 0 min 155 W/m 22,5 km/h (4 Bft) 100,00 %
07.02.2022 13:04 6,3 C 6,1 C 3,3 C 87 % 1025,5 hPa 0,0 l/m 0 min 0 min 152 W/m 16,1 km/h (3 Bft) 97,87 %
07.02.2022 13:06 6,3 C 6,1 C 3,3 C 87 % 1025,5 hPa 0,0 l/m 0 min 0 min 141 W/m 16,1 km/h (3 Bft) 97,83 %
07.02.2022 13:08 6,3 C 6,7 C 3,3 C 87 % 1025,5 hPa 0,0 l/m 0 min 0 min 168 W/m 16,1 km/h (3 Bft) 95,74 %
07.02.2022 13:10 6,3 C 7,2 C 3,3 C 87 % 1025,5 hPa 0,0 l/m 0 min 0 min 189 W/m 19,3 km/h (3 Bft) 97,87 %
07.02.2022 13:12 6,3 C 6,7 C 3,3 C 87 % 1025,5 hPa 0,0 l/m 0 min 0 min 163 W/m 19,3 km/h (3 Bft) 97,87 %
07.02.2022 13:14 6,3 C 6,7 C 3,3 C 87 % 1025,5 hPa 0,0 l/m 0 min 0 min 154 W/m 12,9 km/h (3 Bft) 97,87 %
07.02.2022 13:16 6,4 C 6,7 C 3,3 C 87 % 1025,5 hPa 0,0 l/m 0 min 0 min 156 W/m 16,1 km/h (3 Bft) 97,87 %
07.02.2022 13:18 6,4 C 6,7 C 3,3 C 87 % 1025,5 hPa 0,0 l/m 0 min 0 min 147 W/m 19,3 km/h (3 Bft) 97,83 %
07.02.2022 13:20 6,4 C 6,7 C 3,3 C 87 % 1025,5 hPa 0,0 l/m 0 min 0 min 161 W/m 22,5 km/h (4 Bft) 97,87 %
07.02.2022 13:22 6,4 C 6,7 C 3,3 C 87 % 1025,6 hPa 0,0 l/m 0 min 0 min 174 W/m 16,1 km/h (3 Bft) 97,87 %
07.02.2022 13:24 6,4 C 6,7 C 3,3 C 87 % 1025,6 hPa 0,0 l/m 0 min 0 min 168 W/m 16,1 km/h (3 Bft) 97,87 %
07.02.2022 13:26 6,4 C 6,7 C 3,3 C 87 % 1025,6 hPa 0,0 l/m 0 min 0 min 135 W/m 16,1 km/h (3 Bft) 95,74 %
07.02.2022 13:28 6,4 C 6,1 C 3,3 C 86 % 1025,6 hPa 0,0 l/m 0 min 0 min 110 W/m 16,1 km/h (3 Bft) 97,87 %
07.02.2022 13:30 6,4 C 6,1 C 3,3 C 86 % 1025,6 hPa 0,0 l/m 0 min 0 min 95 W/m 22,5 km/h (4 Bft) 100,00 %
07.02.2022 13:32 6,3 C 6,1 C 3,3 C 86 % 1025,6 hPa 0,0 l/m 0 min 0 min 96 W/m 12,9 km/h (3 Bft) 100,00 %
07.02.2022 13:34 6,3 C 7,2 C 2,8 C 86 % 1025,6 hPa 0,0 l/m 2 min 0 min 234 W/m 19,3 km/h (3 Bft) 100,00 %
07.02.2022 13:36 6,3 C 8,9 C 3,3 C 86 % 1025,6 hPa 0,0 l/m 0 min 0 min 158 W/m 16,1 km/h (3 Bft) 100,00 %
07.02.2022 13:38 6,5 C 10,0 C 3,3 C 86 % 1025,5 hPa 0,0 l/m 2 min 0 min 381 W/m 19,3 km/h (3 Bft) 97,87 %
07.02.2022 13:40 6,6 C 10,0 C 3,3 C 86 % 1025,6 hPa 0,0 l/m 2 min 0 min 404 W/m 12,9 km/h (3 Bft) 100,00 %
07.02.2022 13:42 6,6 C 10,6 C 3,3 C 86 % 1025,5 hPa 0,0 l/m 2 min 0 min 402 W/m 19,3 km/h (3 Bft) 97,87 %
07.02.2022 13:44 6,8 C 12,2 C 3,3 C 85 % 1025,5 hPa 0,0 l/m 2 min 0 min 430 W/m 12,9 km/h (3 Bft) 100,00 %
07.02.2022 13:46 6,9 C 13,3 C 3,3 C 85 % 1025,5 hPa 0,0 l/m 2 min 0 min 426 W/m 16,1 km/h (3 Bft) 100,00 %
07.02.2022 13:48 7,0 C 12,2 C 3,3 C 84 % 1025,4 hPa 0,0 l/m 2 min 0 min 388 W/m 19,3 km/h (3 Bft) 100,00 %
07.02.2022 13:50 7,1 C 10,6 C 3,3 C 84 % 1025,5 hPa 0,0 l/m 2 min 0 min 331 W/m 22,5 km/h (4 Bft) 100,00 %
07.02.2022 13:52 7,1 C 11,1 C 3,3 C 84 % 1025,5 hPa 0,0 l/m 2 min 0 min 221 W/m 19,3 km/h (3 Bft) 100,00 %
07.02.2022 13:54 7,2 C 11,1 C 3,3 C 83 % 1025,6 hPa 0,0 l/m 2 min 0 min 338 W/m 19,3 km/h (3 Bft) 100,00 %
07.02.2022 13:56 7,2 C 10,6 C 3,9 C 82 % 1025,6 hPa 0,0 l/m 2 min 0 min 506 W/m 19,3 km/h (3 Bft) 100,00 %
07.02.2022 13:58 7,3 C 11,1 C 3,9 C 82 % 1025,6 hPa 0,0 l/m 2 min 0 min 519 W/m 16,1 km/h (3 Bft) 100,00 %
07.02.2022 14:00 7,4 C 11,7 C 3,9 C 82 % 1025,6 hPa 0,0 l/m 2 min 0 min 518 W/m 19,3 km/h (3 Bft) 97,87 %
07.02.2022 14:02 7,7 C 12,8 C 4,4 C 82 % 1025,5 hPa 0,0 l/m 2 min 0 min 492 W/m 16,1 km/h (3 Bft) 100,00 %
07.02.2022 14:04 7,7 C 12,8 C 4,4 C 81 % 1025,6 hPa 0,0 l/m 2 min 0 min 433 W/m 19,3 km/h (3 Bft) 97,83 %
07.02.2022 14:06 7,8 C 12,2 C 4,4 C 81 % 1025,7 hPa 0,0 l/m 2 min 0 min 369 W/m 25,7 km/h (4 Bft) 97,87 %
07.02.2022 14:08 7,8 C 11,7 C 4,4 C 80 % 1025,7 hPa 0,0 l/m 2 min 0 min 386 W/m 22,5 km/h (4 Bft) 100,00 %
07.02.2022 14:10 7,8 C 11,1 C 3,9 C 78 % 1025,6 hPa 0,0 l/m 2 min 0 min 379 W/m 19,3 km/h (3 Bft) 100,00 %
07.02.2022 14:12 7,8 C 10,6 C 3,9 C 79 % 1025,6 hPa 0,0 l/m 2 min 0 min 384 W/m 19,3 km/h (3 Bft) 100,00 %
07.02.2022 14:14 7,8 C 10,6 C 3,9 C 79 % 1025,7 hPa 0,0 l/m 2 min 0 min 405 W/m 12,9 km/h (3 Bft) 97,87 %
07.02.2022 14:16 7,7 C 10,6 C 3,9 C 79 % 1025,7 hPa 0,0 l/m 2 min 0 min 405 W/m 22,5 km/h (4 Bft) 100,00 %
07.02.2022 14:18 7,7 C 9,4 C 3,9 C 79 % 1025,8 hPa 0,0 l/m 2 min 0 min 273 W/m 16,1 km/h (3 Bft) 100,00 %
07.02.2022 14:20 7,6 C 8,3 C 3,9 C 79 % 1025,8 hPa 0,0 l/m 0 min 0 min 162 W/m 22,5 km/h (4 Bft) 97,87 %
07.02.2022 14:22 7,6 C 8,3 C 3,9 C 79 % 1025,8 hPa 0,0 l/m 2 min 0 min 200 W/m 12,9 km/h (3 Bft) 100,00 %
07.02.2022 14:24 7,4 C 7,8 C 3,9 C 79 % 1025,7 hPa 0,0 l/m 0 min 0 min 166 W/m 22,5 km/h (4 Bft) 100,00 %
07.02.2022 14:26 7,3 C 7,2 C 3,3 C 79 % 1025,8 hPa 0,0 l/m 0 min 0 min 120 W/m 19,3 km/h (3 Bft) 97,87 %
07.02.2022 14:28 7,2 C 6,7 C 3,3 C 79 % 1025,8 hPa 0,0 l/m 0 min 0 min 110 W/m 25,7 km/h (4 Bft) 100,00 %
07.02.2022 14:30 7,1 C 6,7 C 3,3 C 79 % 1025,8 hPa 0,0 l/m 0 min 0 min 107 W/m 29,0 km/h (5 Bft) 100,00 %
07.02.2022 14:32 7,1 C 7,2 C 3,3 C 79 % 1025,9 hPa 0,0 l/m 0 min 0 min 122 W/m 16,1 km/h (3 Bft) 95,74 %
07.02.2022 14:34 7,1 C 7,8 C 3,3 C 80 % 1026,0 hPa 0,0 l/m 0 min 0 min 154 W/m 19,3 km/h (3 Bft) 97,87 %
07.02.2022 14:36 7,1 C 7,8 C 3,3 C 80 % 1026,0 hPa 0,0 l/m 2 min 0 min 299 W/m 16,1 km/h (3 Bft) 95,74 %
07.02.2022 14:38 7,1 C 7,2 C 3,3 C 80 % 1026,0 hPa 0,0 l/m 2 min 0 min 173 W/m 19,3 km/h (3 Bft) 95,74 %
07.02.2022 14:40 7,1 C 7,8 C 3,3 C 80 % 1026,1 hPa 0,0 l/m 0 min 0 min 159 W/m 12,9 km/h (3 Bft) 97,83 %
07.02.2022 14:42 7,1 C 7,2 C 3,3 C 80 % 1026,1 hPa 0,0 l/m 0 min 0 min 138 W/m 16,1 km/h (3 Bft) 97,87 %
07.02.2022 14:44 7,1 C 7,2 C 3,3 C 80 % 1026,1 hPa 0,0 l/m 0 min 0 min 109 W/m 16,1 km/h (3 Bft) 97,87 %
07.02.2022 14:46 7,1 C 7,2 C 3,3 C 80 % 1026,1 hPa 0,0 l/m 0 min 0 min 102 W/m 16,1 km/h (3 Bft) 95,74 %
07.02.2022 14:48 7,1 C 7,2 C 3,3 C 80 % 1026,1 hPa 0,0 l/m 0 min 0 min 147 W/m 9,7 km/h (2 Bft) 97,87 %
07.02.2022 14:50 7,2 C 7,8 C 3,3 C 80 % 1026,1 hPa 0,0 l/m 0 min 0 min 133 W/m 12,9 km/h (3 Bft) 97,87 %
07.02.2022 14:52 7,2 C 9,4 C 3,9 C 80 % 1026,1 hPa 0,0 l/m 2 min 0 min 216 W/m 16,1 km/h (3 Bft) 91,30 %
07.02.2022 14:54 7,3 C 10,0 C 3,9 C 80 % 1026,2 hPa 0,0 l/m 2 min 0 min 330 W/m 22,5 km/h (4 Bft) 95,74 %
07.02.2022 14:56 7,5 C 9,4 C 3,9 C 78 % 1026,2 hPa 0,0 l/m 2 min 0 min 388 W/m 25,7 km/h (4 Bft) 93,75 %
07.02.2022 14:58 7,5 C 8,9 C 3,9 C 78 % 1026,3 hPa 0,0 l/m 2 min 0 min 298 W/m 16,1 km/h (3 Bft) 97,87 %
07.02.2022 15:00 7,5 C 7,8 C 3,9 C 77 % 1026,3 hPa 0,0 l/m 0 min 0 min 138 W/m 16,1 km/h (3 Bft) 95,74 %
07.02.2022 15:02 7,5 C 7,8 C 3,9 C 77 % 1026,4 hPa 0,0 l/m 0 min 0 min 114 W/m 9,7 km/h (2 Bft) 95,74 %
07.02.2022 15:04 7,4 C 7,2 C 3,9 C 77 % 1026,4 hPa 0,0 l/m 0 min 0 min 104 W/m 19,3 km/h (3 Bft) 95,65 %
07.02.2022 15:06 7,4 C 7,2 C 3,9 C 77 % 1026,4 hPa 0,0 l/m 0 min 0 min 94 W/m 12,9 km/h (3 Bft) 95,74 %
07.02.2022 15:08 7,3 C 7,2 C 3,9 C 78 % 1026,5 hPa 0,0 l/m 2 min 0 min 147 W/m 12,9 km/h (3 Bft) 95,74 %
07.02.2022 15:10 7,4 C 7,8 C 3,9 C 78 % 1026,5 hPa 0,0 l/m 2 min 0 min 213 W/m 12,9 km/h (3 Bft) 95,74 %
07.02.2022 15:12 7,4 C 7,8 C 3,9 C 78 % 1026,5 hPa 0,0 l/m 2 min 0 min 162 W/m 16,1 km/h (3 Bft) 93,62 %
07.02.2022 15:14 7,4 C 7,8 C 3,9 C 78 % 1026,5 hPa 0,0 l/m 0 min 0 min 121 W/m 16,1 km/h (3 Bft) 95,65 %
07.02.2022 15:16 7,3 C 7,8 C 3,9 C 78 % 1026,4 hPa 0,0 l/m 0 min 0 min 137 W/m 16,1 km/h (3 Bft) 95,74 %
07.02.2022 15:18 7,3 C 7,8 C 3,9 C 78 % 1026,5 hPa 0,0 l/m 0 min 0 min 133 W/m 12,9 km/h (3 Bft) 97,87 %
07.02.2022 15:20 7,3 C 7,8 C 3,3 C 78 % 1026,6 hPa 0,0 l/m 0 min 0 min 124 W/m 12,9 km/h (3 Bft) 97,87 %
07.02.2022 15:22 7,3 C 7,2 C 3,3 C 78 % 1026,6 hPa 0,0 l/m 0 min 0 min 134 W/m 12,9 km/h (3 Bft) 93,62 %
07.02.2022 15:24 7,3 C 7,2 C 3,3 C 77 % 1026,6 hPa 0,0 l/m 2 min 0 min 148 W/m 16,1 km/h (3 Bft) 97,87 %
07.02.2022 15:26 7,3 C 7,2 C 3,9 C 78 % 1026,6 hPa 0,0 l/m 2 min 0 min 154 W/m 12,9 km/h (3 Bft) 97,83 %
07.02.2022 15:28 7,3 C 7,2 C 3,9 C 78 % 1026,5 hPa 0,0 l/m 0 min 0 min 119 W/m 16,1 km/h (3 Bft) 97,87 %
07.02.2022 15:30 7,3 C 7,2 C 3,3 C 78 % 1026,6 hPa 0,0 l/m 0 min 0 min 92 W/m 16,1 km/h (3 Bft) 95,74 %
07.02.2022 15:32 7,2 C 7,2 C 3,3 C 78 % 1026,5 hPa 0,0 l/m 0 min 0 min 105 W/m 12,9 km/h (3 Bft) 95,74 %
07.02.2022 15:34 7,2 C 7,2 C 3,3 C 78 % 1026,7 hPa 0,0 l/m 0 min 0 min 110 W/m 12,9 km/h (3 Bft) 95,74 %
07.02.2022 15:36 7,2 C 7,2 C 3,3 C 78 % 1026,6 hPa 0,0 l/m 0 min 0 min 108 W/m 16,1 km/h (3 Bft) 95,74 %
07.02.2022 15:38 7,2 C 7,2 C 3,3 C 78 % 1026,6 hPa 0,0 l/m 0 min 0 min 101 W/m 12,9 km/h (3 Bft) 95,74 %
07.02.2022 15:40 7,2 C 7,2 C 3,3 C 78 % 1026,7 hPa 0,0 l/m 0 min 0 min 103 W/m 9,7 km/h (2 Bft) 93,48 %
07.02.2022 15:42 7,2 C 7,2 C 3,3 C 78 % 1026,7 hPa 0,0 l/m 0 min 0 min 116 W/m 12,9 km/h (3 Bft) 95,83 %
07.02.2022 15:44 7,2 C 7,2 C 3,3 C 76 % 1026,7 hPa 0,0 l/m 0 min 0 min 104 W/m 12,9 km/h (3 Bft) 93,62 %
07.02.2022 15:46 7,3 C 7,2 C 3,3 C 77 % 1026,8 hPa 0,0 l/m 2 min 0 min 213 W/m 22,5 km/h (4 Bft) 97,87 %
07.02.2022 15:48 7,3 C 7,2 C 3,3 C 76 % 1026,7 hPa 0,0 l/m 2 min 0 min 134 W/m 16,1 km/h (3 Bft) 97,87 %
07.02.2022 15:50 7,3 C 7,2 C 3,3 C 76 % 1026,8 hPa 0,0 l/m 2 min 0 min 158 W/m 16,1 km/h (3 Bft) 97,83 %
07.02.2022 15:52 7,3 C 7,2 C 3,3 C 76 % 1026,7 hPa 0,0 l/m 2 min 0 min 186 W/m 19,3 km/h (3 Bft) 97,83 %
07.02.2022 15:54 7,3 C 7,2 C 3,3 C 76 % 1026,7 hPa 0,0 l/m 2 min 0 min 202 W/m 16,1 km/h (3 Bft) 97,87 %
07.02.2022 15:56 7,3 C 7,2 C 3,3 C 76 % 1026,7 hPa 0,0 l/m 2 min 0 min 126 W/m 22,5 km/h (4 Bft) 95,74 %
07.02.2022 15:58 7,3 C 7,2 C 3,3 C 75 % 1026,7 hPa 0,0 l/m 0 min 0 min 70 W/m 25,7 km/h (4 Bft) 97,92 %
07.02.2022 16:00 7,3 C 6,7 C 3,3 C 75 % 1026,7 hPa 0,0 l/m 0 min 0 min 62 W/m 16,1 km/h (3 Bft) 97,87 %
07.02.2022 16:02 7,2 C 6,7 C 3,3 C 75 % 1026,8 hPa 0,0 l/m 0 min 0 min 56 W/m 16,1 km/h (3 Bft) 93,48 %
07.02.2022 16:04 7,2 C 6,7 C 3,3 C 75 % 1026,8 hPa 0,0 l/m 0 min 0 min 53 W/m 25,7 km/h (4 Bft) 97,87 %
07.02.2022 16:06 7,1 C 6,7 C 3,3 C 75 % 1026,8 hPa 0,0 l/m 0 min 0 min 57 W/m 16,1 km/h (3 Bft) 97,87 %
07.02.2022 16:08 7,1 C 6,7 C 2,8 C 76 % 1026,8 hPa 0,0 l/m 0 min 0 min 59 W/m 16,1 km/h (3 Bft) 97,87 %
07.02.2022 16:10 7,0 C 6,7 C 2,8 C 76 % 1026,8 hPa 0,0 l/m 0 min 0 min 57 W/m 12,9 km/h (3 Bft) 97,87 %
07.02.2022 16:12 7,0 C 6,7 C 2,8 C 76 % 1026,9 hPa 0,0 l/m 0 min 0 min 53 W/m 12,9 km/h (3 Bft) 97,87 %
07.02.2022 16:14 6,9 C 6,7 C 2,8 C 76 % 1026,8 hPa 0,0 l/m 0 min 0 min 44 W/m 12,9 km/h (3 Bft) 97,92 %
07.02.2022 16:16 6,9 C 6,1 C 2,8 C 76 % 1026,9 hPa 0,0 l/m 0 min 0 min 40 W/m 12,9 km/h (3 Bft) 74,47 %
07.02.2022 16:18 6,9 C 6,1 C 2,8 C 77 % 1027,0 hPa 0,0 l/m 0 min 0 min 40 W/m 9,7 km/h (2 Bft) 81,40 %
07.02.2022 16:20 6,8 C 6,1 C 2,8 C 77 % 1027,0 hPa 0,0 l/m 0 min 0 min 39 W/m 16,1 km/h (3 Bft) 100,00 %
07.02.2022 16:22 6,8 C 6,1 C 2,8 C 77 % 1026,9 hPa 0,0 l/m 0 min 0 min 41 W/m 12,9 km/h (3 Bft) 100,00 %
07.02.2022 16:24 6,8 C 6,1 C 2,8 C 77 % 1027,0 hPa 0,0 l/m 0 min 0 min 40 W/m 12,9 km/h (3 Bft) 97,83 %
07.02.2022 16:26 6,8 C 6,1 C 2,8 C 77 % 1027,0 hPa 0,0 l/m 0 min 0 min 41 W/m 12,9 km/h (3 Bft) 100,00 %
07.02.2022 16:28 6,8 C 6,1 C 2,8 C 77 % 1027,0 hPa 0,0 l/m 0 min 0 min 44 W/m 19,3 km/h (3 Bft) 100,00 %
07.02.2022 16:30 6,7 C 6,1 C 2,8 C 77 % 1027,0 hPa 0,0 l/m 0 min 0 min 49 W/m 12,9 km/h (3 Bft) 100,00 %
07.02.2022 16:32 6,7 C 6,1 C 2,8 C 77 % 1026,9 hPa 0,0 l/m 0 min 0 min 49 W/m 9,7 km/h (2 Bft) 97,96 %
07.02.2022 16:34 6,7 C 6,1 C 2,8 C 77 % 1026,9 hPa 0,0 l/m 0 min 0 min 51 W/m 16,1 km/h (3 Bft) 100,00 %
07.02.2022 16:36 6,7 C 6,1 C 2,8 C 77 % 1026,9 hPa 0,0 l/m 0 min 0 min 61 W/m 12,9 km/h (3 Bft) 100,00 %
07.02.2022 16:38 6,7 C 6,1 C 2,8 C 77 % 1026,8 hPa 0,0 l/m 0 min 0 min 57 W/m 12,9 km/h (3 Bft) 97,87 %
07.02.2022 16:40 6,6 C 6,1 C 2,8 C 77 % 1026,8 hPa 0,0 l/m 0 min 0 min 53 W/m 12,9 km/h (3 Bft) 100,00 %
07.02.2022 16:42 6,7 C 6,1 C 2,8 C 78 % 1026,9 hPa 0,0 l/m 2 min 0 min 58 W/m 12,9 km/h (3 Bft) 100,00 %
07.02.2022 16:44 6,7 C 6,1 C 2,8 C 78 % 1027,0 hPa 0,0 l/m 2 min 0 min 59 W/m 12,9 km/h (3 Bft) 100,00 %
07.02.2022 16:46 6,7 C 6,1 C 2,8 C 78 % 1027,0 hPa 0,0 l/m 0 min 0 min 46 W/m 12,9 km/h (3 Bft) 100,00 %
07.02.2022 16:48 6,7 C 6,1 C 2,8 C 78 % 1027,0 hPa 0,0 l/m 0 min 0 min 41 W/m 6,4 km/h (2 Bft) 100,00 %
07.02.2022 16:50 6,7 C 6,1 C 2,8 C 78 % 1027,0 hPa 0,0 l/m 0 min 0 min 40 W/m 6,4 km/h (2 Bft) 100,00 %
07.02.2022 16:52 6,7 C 6,1 C 2,8 C 78 % 1027,0 hPa 0,0 l/m 0 min 0 min 39 W/m 16,1 km/h (3 Bft) 100,00 %
07.02.2022 16:54 6,7 C 6,1 C 2,8 C 78 % 1027,0 hPa 0,0 l/m 0 min 0 min 37 W/m 12,9 km/h (3 Bft) 100,00 %
07.02.2022 16:56 6,7 C 6,1 C 2,8 C 77 % 1027,1 hPa 0,0 l/m 0 min 0 min 35 W/m 6,4 km/h (2 Bft) 100,00 %
07.02.2022 16:58 6,7 C 6,1 C 2,8 C 78 % 1027,1 hPa 0,0 l/m 0 min 0 min 33 W/m 12,9 km/h (3 Bft) 100,00 %
07.02.2022 17:00 6,7 C 6,1 C 2,8 C 78 % 1027,0 hPa 0,0 l/m 0 min 0 min 30 W/m 9,7 km/h (2 Bft) 100,00 %
07.02.2022 17:02 6,7 C 6,1 C 2,8 C 78 % 1027,0 hPa 0,0 l/m 0 min 0 min 28 W/m 16,1 km/h (3 Bft) 100,00 %
07.02.2022 17:04 6,7 C 6,1 C 2,8 C 78 % 1027,0 hPa 0,0 l/m 0 min 0 min 26 W/m 22,5 km/h (4 Bft) 100,00 %
07.02.2022 17:06 6,7 C 6,1 C 2,8 C 77 % 1027,1 hPa 0,0 l/m 0 min 0 min 25 W/m 16,1 km/h (3 Bft) 100,00 %
07.02.2022 17:08 6,7 C 6,1 C 2,8 C 77 % 1027,1 hPa 0,0 l/m 0 min 0 min 24 W/m 12,9 km/h (3 Bft) 100,00 %
07.02.2022 17:10 6,7 C 6,1 C 2,8 C 77 % 1027,1 hPa 0,0 l/m 0 min 0 min 21 W/m 6,4 km/h (2 Bft) 97,87 %
07.02.2022 17:12 6,6 C 5,6 C 2,2 C 77 % 1027,1 hPa 0,0 l/m 0 min 0 min 18 W/m 3,2 km/h (1 Bft) 95,65 %
07.02.2022 17:14 6,6 C 5,6 C 2,2 C 78 % 1027,1 hPa 0,0 l/m 0 min 0 min 17 W/m 3,2 km/h (1 Bft) 97,87 %
07.02.2022 17:16 6,6 C 5,6 C 2,2 C 78 % 1027,1 hPa 0,0 l/m 0 min 0 min 18 W/m 6,4 km/h (2 Bft) 95,74 %
07.02.2022 17:18 6,6 C 5,6 C 2,2 C 78 % 1027,1 hPa 0,0 l/m 0 min 0 min 18 W/m 3,2 km/h (1 Bft) 97,87 %
07.02.2022 17:20 6,5 C 5,6 C 2,2 C 78 % 1027,1 hPa 0,0 l/m 0 min 0 min 17 W/m 12,9 km/h (3 Bft) 97,87 %
07.02.2022 17:22 6,5 C 5,6 C 2,2 C 78 % 1027,1 hPa 0,0 l/m 0 min 0 min 16 W/m 3,2 km/h (1 Bft) 95,74 %
07.02.2022 17:24 6,4 C 5,6 C 2,2 C 79 % 1027,0 hPa 0,0 l/m 0 min 0 min 14 W/m 6,4 km/h (2 Bft) 95,65 %
07.02.2022 17:26 6,4 C 5,6 C 2,2 C 79 % 1027,0 hPa 0,0 l/m 0 min 0 min 13 W/m 9,7 km/h (2 Bft) 95,74 %
07.02.2022 17:28 6,3 C 5,6 C 2,2 C 79 % 1027,1 hPa 0,0 l/m 0 min 0 min 12 W/m 9,7 km/h (2 Bft) 95,74 %
07.02.2022 17:30 6,3 C 5,6 C 2,2 C 79 % 1027,1 hPa 0,0 l/m 0 min 0 min 11 W/m 6,4 km/h (2 Bft) 95,74 %
07.02.2022 17:32 6,3 C 5,0 C 2,2 C 79 % 1027,1 hPa 0,0 l/m 0 min 0 min 10 W/m 6,4 km/h (2 Bft) 95,74 %
07.02.2022 17:34 6,2 C 5,0 C 1,7 C 79 % 1027,0 hPa 0,0 l/m 0 min 0 min 9 W/m 3,2 km/h (1 Bft) 52,17 %
07.02.2022 17:36 6,2 C 5,0 C 1,7 C 79 % 1027,1 hPa 0,0 l/m 0 min 0 min 7 W/m 3,2 km/h (1 Bft) 97,83 %
07.02.2022 17:38 6,2 C 5,0 C 1,7 C 79 % 1027,2 hPa 0,0 l/m 0 min 0 min 5 W/m 6,4 km/h (2 Bft) 95,74 %
07.02.2022 17:40 6,1 C 5,0 C 1,7 C 80 % 1027,2 hPa 0,0 l/m 0 min 0 min 5 W/m 3,2 km/h (1 Bft) 91,49 %
07.02.2022 17:42 6,1 C 5,0 C 1,7 C 80 % 1027,3 hPa 0,0 l/m 0 min 0 min 5 W/m 3,2 km/h (1 Bft) 95,74 %
07.02.2022 17:44 6,1 C 5,0 C 1,7 C 80 % 1027,3 hPa 0,0 l/m 0 min 0 min 2 W/m 6,4 km/h (2 Bft) 93,62 %
07.02.2022 17:46 6,1 C 5,0 C 1,7 C 80 % 1027,3 hPa 0,0 l/m 0 min 0 min 0 W/m 6,4 km/h (2 Bft) 91,30 %
07.02.2022 17:48 6,1 C 5,0 C 1,7 C 80 % 1027,3 hPa 0,0 l/m 0 min 0 min 0 W/m 6,4 km/h (2 Bft) 93,62 %
07.02.2022 17:50 6,1 C 5,0 C 1,7 C 80 % 1027,3 hPa 0,0 l/m 0 min 0 min 0 W/m 6,4 km/h (2 Bft) 93,62 %
07.02.2022 17:52 6,1 C 5,0 C 1,7 C 80 % 1027,3 hPa 0,0 l/m 0 min 0 min 0 W/m 6,4 km/h (2 Bft) 93,62 %
07.02.2022 17:54 6,1 C 5,0 C 1,7 C 80 % 1027,3 hPa 0,0 l/m 0 min 0 min 0 W/m 6,4 km/h (2 Bft) 93,62 %
07.02.2022 17:56 6,0 C 5,0 C 1,7 C 80 % 1027,3 hPa 0,0 l/m 0 min 0 min 0 W/m 6,4 km/h (2 Bft) 93,62 %
07.02.2022 17:58 6,0 C 5,0 C 2,2 C 80 % 1027,3 hPa 0,0 l/m 0 min 0 min 0 W/m 6,4 km/h (2 Bft) 91,30 %
07.02.2022 18:00 6,0 C 5,0 C 2,2 C 80 % 1027,4 hPa 0,0 l/m 0 min 0 min 0 W/m 3,2 km/h (1 Bft) 95,74 %
07.02.2022 18:02 6,0 C 5,0 C 2,2 C 80 % 1027,4 hPa 0,0 l/m 0 min 0 min 0 W/m 3,2 km/h (1 Bft) 95,74 %
07.02.2022 18:04 6,0 C 5,0 C 2,2 C 80 % 1027,5 hPa 0,0 l/m 0 min 0 min 0 W/m 6,4 km/h (2 Bft) 91,49 %
07.02.2022 18:08 6,0 C 5,0 C 2,2 C 80 % 1027,5 hPa 0,0 l/m 0 min 0 min 0 W/m 3,2 km/h (1 Bft) 94,68 %
07.02.2022 18:10 6,0 C 5,0 C 2,2 C 80 % 1027,6 hPa 0,0 l/m 0 min 0 min 0 W/m 3,2 km/h (1 Bft) 97,83 %
07.02.2022 18:12 6,0 C 5,0 C 1,7 C 80 % 1027,6 hPa 0,0 l/m 0 min 0 min 0 W/m 3,2 km/h (1 Bft) 97,87 %
07.02.2022 18:14 6,0 C 5,0 C 1,7 C 80 % 1027,5 hPa 0,0 l/m 0 min 0 min 0 W/m 6,4 km/h (2 Bft) 97,87 %
07.02.2022 18:16 6,0 C 5,0 C 2,2 C 80 % 1027,4 hPa 0,0 l/m 0 min 0 min 0 W/m 6,4 km/h (2 Bft) 100,00 %
07.02.2022 18:18 6,0 C 5,6 C 2,2 C 80 % 1027,4 hPa 0,0 l/m 0 min 0 min 0 W/m 6,4 km/h (2 Bft) 100,00 %
07.02.2022 18:20 6,0 C 5,6 C 2,2 C 80 % 1027,4 hPa 0,0 l/m 0 min 0 min 0 W/m 6,4 km/h (2 Bft) 100,00 %
07.02.2022 18:22 6,0 C 5,6 C 2,2 C 80 % 1027,4 hPa 0,0 l/m 0 min 0 min 0 W/m 6,4 km/h (2 Bft) 100,00 %
07.02.2022 18:24 6,0 C 5,6 C 2,2 C 79 % 1027,4 hPa 0,0 l/m 0 min 0 min 0 W/m 3,2 km/h (1 Bft) 100,00 %
07.02.2022 18:26 6,0 C 5,6 C 2,2 C 79 % 1027,4 hPa 0,0 l/m 0 min 0 min 0 W/m 3,2 km/h (1 Bft) 100,00 %
07.02.2022 18:28 6,0 C 5,6 C 2,2 C 79 % 1027,4 hPa 0,0 l/m 0 min 0 min 0 W/m 9,7 km/h (2 Bft) 100,00 %
07.02.2022 18:30 6,0 C 5,6 C 2,2 C 79 % 1027,4 hPa 0,0 l/m 0 min 0 min 0 W/m 6,4 km/h (2 Bft) 97,87 %
07.02.2022 18:32 6,0 C 5,0 C 2,2 C 79 % 1027,4 hPa 0,0 l/m 0 min 0 min 0 W/m 3,2 km/h (1 Bft) 100,00 %
07.02.2022 18:34 6,0 C 5,0 C 2,2 C 79 % 1027,4 hPa 0,0 l/m 0 min 0 min 0 W/m 3,2 km/h (1 Bft) 100,00 %
07.02.2022 18:36 6,0 C 5,0 C 1,7 C 79 % 1027,4 hPa 0,0 l/m 0 min 0 min 0 W/m 3,2 km/h (1 Bft) 97,87 %
07.02.2022 18:38 6,0 C 5,0 C 1,7 C 79 % 1027,3 hPa 0,0 l/m 0 min 0 min 0 W/m 6,4 km/h (2 Bft) 100,00 %
07.02.2022 18:40 6,0 C 5,0 C 1,7 C 79 % 1027,4 hPa 0,0 l/m 0 min 0 min 0 W/m 6,4 km/h (2 Bft) 100,00 %
07.02.2022 18:42 5,9 C 5,0 C 1,7 C 79 % 1027,4 hPa 0,0 l/m 0 min 0 min 0 W/m 3,2 km/h (1 Bft) 100,00 %
07.02.2022 18:44 5,9 C 5,0 C 1,7 C 80 % 1027,4 hPa 0,0 l/m 0 min 0 min 0 W/m 6,4 km/h (2 Bft) 100,00 %
07.02.2022 18:46 5,9 C 5,0 C 1,7 C 80 % 1027,4 hPa 0,0 l/m 0 min 0 min 0 W/m 3,2 km/h (1 Bft) 100,00 %
07.02.2022 18:48 5,9 C 5,0 C 1,7 C 80 % 1027,5 hPa 0,0 l/m 0 min 0 min 0 W/m 3,2 km/h (1 Bft) 100,00 %
07.02.2022 18:50 5,9 C 5,0 C 1,7 C 80 % 1027,5 hPa 0,0 l/m 0 min 0 min 0 W/m 3,2 km/h (1 Bft) 100,00 %
07.02.2022 18:52 5,9 C 5,0 C 1,7 C 80 % 1027,5 hPa 0,0 l/m 0 min 0 min 0 W/m 6,4 km/h (2 Bft) 100,00 %
07.02.2022 18:54 5,9 C 5,0 C 1,7 C 80 % 1027,5 hPa 0,0 l/m 0 min 0 min 0 W/m 3,2 km/h (1 Bft) 100,00 %
07.02.2022 18:56 5,8 C 5,0 C 1,7 C 80 % 1027,5 hPa 0,0 l/m 0 min 0 min 0 W/m 6,4 km/h (2 Bft) 100,00 %
07.02.2022 18:58 5,8 C 5,0 C 1,7 C 80 % 1027,6 hPa 0,0 l/m 0 min 0 min 0 W/m 6,4 km/h (2 Bft) 100,00 %
07.02.2022 19:00 5,8 C 5,0 C 1,7 C 80 % 1027,6 hPa 0,0 l/m 0 min 0 min 0 W/m 6,4 km/h (2 Bft) 100,00 %
07.02.2022 19:02 5,8 C 5,0 C 1,7 C 81 % 1027,6 hPa 0,0 l/m 0 min 0 min 0 W/m 6,4 km/h (2 Bft) 100,00 %
07.02.2022 19:04 5,8 C 5,0 C 1,7 C 81 % 1027,5 hPa 0,0 l/m 0 min 0 min 0 W/m 6,4 km/h (2 Bft) 100,00 %
07.02.2022 19:06 5,8 C 5,0 C 1,7 C 81 % 1027,5 hPa 0,0 l/m 0 min 0 min 0 W/m 3,2 km/h (1 Bft) 97,87 %
07.02.2022 19:08 5,8 C 5,0 C 1,7 C 81 % 1027,5 hPa 0,0 l/m 0 min 0 min 0 W/m 6,4 km/h (2 Bft) 100,00 %
07.02.2022 19:10 5,8 C 5,0 C 1,7 C 81 % 1027,5 hPa 0,0 l/m 0 min 0 min 0 W/m 6,4 km/h (2 Bft) 100,00 %
07.02.2022 19:12 5,8 C 5,0 C 1,7 C 81 % 1027,6 hPa 0,0 l/m 0 min 0 min 0 W/m 6,4 km/h (2 Bft) 100,00 %
07.02.2022 19:14 5,7 C 5,0 C 1,7 C 81 % 1027,6 hPa 0,0 l/m 0 min 0 min 0 W/m 3,2 km/h (1 Bft) 100,00 %
07.02.2022 19:16 5,7 C 5,0 C 1,7 C 81 % 1027,6 hPa 0,0 l/m 0 min 0 min 0 W/m 6,4 km/h (2 Bft) 100,00 %
07.02.2022 19:18 5,7 C 5,0 C 1,7 C 81 % 1027,7 hPa 0,0 l/m 0 min 0 min 0 W/m 6,4 km/h (2 Bft) 100,00 %
07.02.2022 19:20 5,7 C 5,0 C 1,7 C 81 % 1027,7 hPa 0,0 l/m 0 min 0 min 0 W/m 3,2 km/h (1 Bft) 100,00 %
07.02.2022 19:22 5,7 C 5,0 C 1,7 C 81 % 1027,8 hPa 0,0 l/m 0 min 0 min 0 W/m 6,4 km/h (2 Bft) 100,00 %
07.02.2022 19:24 5,7 C 5,0 C 1,7 C 81 % 1027,8 hPa 0,0 l/m 0 min 0 min 0 W/m 3,2 km/h (1 Bft) 100,00 %
07.02.2022 19:26 5,7 C 5,0 C 1,7 C 81 % 1027,7 hPa 0,0 l/m 0 min 0 min 0 W/m 3,2 km/h (1 Bft) 100,00 %
07.02.2022 19:28 5,7 C 5,0 C 1,7 C 81 % 1027,7 hPa 0,0 l/m 0 min 0 min 0 W/m 12,9 km/h (3 Bft) 97,87 %
07.02.2022 19:30 5,7 C 5,0 C 1,7 C 80 % 1027,8 hPa 0,0 l/m 0 min 0 min 0 W/m 6,4 km/h (2 Bft) 100,00 %
07.02.2022 19:32 5,7 C 5,0 C 1,7 C 80 % 1027,8 hPa 0,0 l/m 0 min 0 min 0 W/m 6,4 km/h (2 Bft) 100,00 %
07.02.2022 19:34 5,7 C 5,0 C 1,7 C 80 % 1027,8 hPa 0,0 l/m 0 min 0 min 0 W/m 3,2 km/h (1 Bft) 96,15 %
07.02.2022 19:36 5,7 C 5,0 C 1,7 C 80 % 1027,7 hPa 0,0 l/m 0 min 0 min 0 W/m 6,4 km/h (2 Bft) 95,24 %
07.02.2022 19:38 5,7 C 5,0 C 1,7 C 80 % 1027,7 hPa 0,0 l/m 0 min 0 min 0 W/m 12,9 km/h (3 Bft) 96,15 %
07.02.2022 19:40 5,7 C 5,0 C 1,7 C 80 % 1027,8 hPa 0,0 l/m 0 min 0 min 0 W/m 6,4 km/h (2 Bft) 95,74 %
07.02.2022 19:42 5,7 C 5,0 C 1,7 C 80 % 1027,8 hPa 0,0 l/m 0 min 0 min 0 W/m 6,4 km/h (2 Bft) 97,87 %
07.02.2022 19:44 5,7 C 5,0 C 1,7 C 80 % 1027,8 hPa 0,0 l/m 0 min 0 min 0 W/m 3,2 km/h (1 Bft) 95,74 %
07.02.2022 19:46 5,7 C 5,0 C 1,7 C 80 % 1027,8 hPa 0,0 l/m 0 min 0 min 0 W/m 6,4 km/h (2 Bft) 97,56 %
07.02.2022 19:48 5,7 C 5,0 C 1,7 C 80 % 1027,8 hPa 0,0 l/m 0 min 0 min 0 W/m 9,7 km/h (2 Bft) 98,08 %
07.02.2022 19:50 5,8 C 5,0 C 1,7 C 80 % 1027,8 hPa 0,0 l/m 0 min 0 min 0 W/m 6,4 km/h (2 Bft) 95,74 %
07.02.2022 19:52 5,8 C 5,0 C 1,7 C 80 % 1027,8 hPa 0,0 l/m 0 min 0 min 0 W/m 12,9 km/h (3 Bft) 95,74 %
07.02.2022 19:54 5,8 C 5,0 C 1,7 C 79 % 1027,8 hPa 0,0 l/m 0 min 0 min 0 W/m 12,9 km/h (3 Bft) 93,62 %
07.02.2022 19:56 5,8 C 5,0 C 1,7 C 79 % 1027,7 hPa 0,0 l/m 0 min 0 min 0 W/m 12,9 km/h (3 Bft) 97,56 %
07.02.2022 19:58 5,8 C 5,0 C 1,7 C 79 % 1027,7 hPa 0,0 l/m 0 min 0 min 0 W/m 6,4 km/h (2 Bft) 96,15 %
07.02.2022 20:00 5,8 C 5,0 C 1,7 C 79 % 1027,7 hPa 0,0 l/m 0 min 0 min 0 W/m 6,4 km/h (2 Bft) 95,74 %
07.02.2022 20:02 5,8 C 5,0 C 1,7 C 79 % 1027,7 hPa 0,0 l/m 0 min 0 min 0 W/m 6,4 km/h (2 Bft) 93,75 %
07.02.2022 20:04 5,8 C 5,0 C 1,7 C 79 % 1027,8 hPa 0,0 l/m 0 min 0 min 0 W/m 9,7 km/h (2 Bft) 95,74 %
07.02.2022 20:06 5,8 C 5,0 C 1,7 C 79 % 1027,8 hPa 0,0 l/m 0 min 0 min 0 W/m 6,4 km/h (2 Bft) 97,87 %
07.02.2022 20:08 5,8 C 5,0 C 1,7 C 79 % 1027,8 hPa 0,0 l/m 0 min 0 min 0 W/m 3,2 km/h (1 Bft) 93,62 %
07.02.2022 20:10 5,8 C 5,0 C 1,7 C 79 % 1027,8 hPa 0,0 l/m 0 min 0 min 0 W/m 6,4 km/h (2 Bft) 93,48 %
07.02.2022 20:12 5,8 C 5,0 C 1,7 C 79 % 1027,8 hPa 0,0 l/m 0 min 0 min 0 W/m 3,2 km/h (1 Bft) 95,74 %
07.02.2022 20:14 5,8 C 5,0 C 1,7 C 79 % 1027,9 hPa 0,0 l/m 0 min 0 min 0 W/m 6,4 km/h (2 Bft) 95,74 %
07.02.2022 20:16 5,8 C 5,0 C 1,7 C 79 % 1027,9 hPa 0,0 l/m 0 min 0 min 0 W/m 6,4 km/h (2 Bft) 95,74 %
07.02.2022 20:18 5,8 C 5,0 C 1,7 C 79 % 1027,9 hPa 0,0 l/m 0 min 0 min 0 W/m 6,4 km/h (2 Bft) 95,74 %
07.02.2022 20:20 5,7 C 5,0 C 1,7 C 79 % 1027,9 hPa 0,0 l/m 0 min 0 min 0 W/m 3,2 km/h (1 Bft) 95,74 %
07.02.2022 20:22 5,8 C 5,0 C 1,7 C 79 % 1028,0 hPa 0,0 l/m 0 min 0 min 0 W/m 9,7 km/h (2 Bft) 93,48 %
07.02.2022 20:24 5,7 C 5,0 C 1,7 C 79 % 1027,9 hPa 0,0 l/m 0 min 0 min 0 W/m 6,4 km/h (2 Bft) 95,74 %
07.02.2022 20:26 5,8 C 5,0 C 1,7 C 79 % 1027,9 hPa 0,0 l/m 0 min 0 min 0 W/m 9,7 km/h (2 Bft) 95,74 %
07.02.2022 20:28 5,8 C 5,6 C 1,7 C 80 % 1027,9 hPa 0,0 l/m 0 min 0 min 0 W/m 12,9 km/h (3 Bft) 95,74 %
07.02.2022 20:30 5,9 C 5,6 C 2,2 C 79 % 1027,9 hPa 0,0 l/m 0 min 0 min 0 W/m 9,7 km/h (2 Bft) 95,74 %
07.02.2022 20:32 5,9 C 5,6 C 1,7 C 79 % 1028,0 hPa 0,0 l/m 0 min 0 min 0 W/m 12,9 km/h (3 Bft) 97,87 %
07.02.2022 20:34 5,9 C 5,6 C 2,2 C 79 % 1028,0 hPa 0,0 l/m 0 min 0 min 0 W/m 9,7 km/h (2 Bft) 97,83 %
07.02.2022 20:36 5,9 C 5,6 C 2,2 C 79 % 1028,0 hPa 0,0 l/m 0 min 0 min 0 W/m 6,4 km/h (2 Bft) 97,87 %
07.02.2022 20:38 5,9 C 5,6 C 2,2 C 79 % 1028,0 hPa 0,0 l/m 0 min 0 min 0 W/m 12,9 km/h (3 Bft) 97,87 %
07.02.2022 20:40 5,9 C 5,6 C 2,2 C 79 % 1027,9 hPa 0,0 l/m 0 min 0 min 0 W/m 6,4 km/h (2 Bft) 97,87 %
07.02.2022 20:42 5,9 C 5,6 C 2,2 C 79 % 1027,9 hPa 0,0 l/m 0 min 0 min 0 W/m 12,9 km/h (3 Bft) 95,74 %
07.02.2022 20:44 5,9 C 5,6 C 1,7 C 79 % 1027,9 hPa 0,0 l/m 0 min 0 min 0 W/m 9,7 km/h (2 Bft) 97,87 %
07.02.2022 20:46 5,9 C 5,6 C 1,7 C 79 % 1028,0 hPa 0,0 l/m 0 min 0 min 0 W/m 9,7 km/h (2 Bft) 97,83 %
07.02.2022 20:48 5,9 C 5,6 C 1,7 C 79 % 1028,0 hPa 0,0 l/m 0 min 0 min 0 W/m 12,9 km/h (3 Bft) 97,87 %
07.02.2022 20:50 5,9 C 5,6 C 1,7 C 79 % 1028,0 hPa 0,0 l/m 0 min 0 min 0 W/m 6,4 km/h (2 Bft) 97,87 %
07.02.2022 20:52 5,9 C 5,6 C 1,7 C 79 % 1027,9 hPa 0,0 l/m 0 min 0 min 0 W/m 9,7 km/h (2 Bft) 95,74 %
07.02.2022 20:54 5,9 C 5,0 C 1,7 C 79 % 1028,0 hPa 0,0 l/m 0 min 0 min 0 W/m 9,7 km/h (2 Bft) 97,87 %
07.02.2022 20:56 5,9 C 5,0 C 1,7 C 79 % 1028,0 hPa 0,0 l/m 0 min 0 min 0 W/m 16,1 km/h (3 Bft) 97,83 %
07.02.2022 20:58 5,9 C 5,0 C 1,7 C 79 % 1028,0 hPa 0,0 l/m 0 min 0 min 0 W/m 6,4 km/h (2 Bft) 97,87 %
07.02.2022 21:00 5,9 C 5,0 C 1,7 C 79 % 1028,0 hPa 0,0 l/m 0 min 0 min 0 W/m 9,7 km/h (2 Bft) 97,87 %
07.02.2022 21:02 5,9 C 5,0 C 1,7 C 79 % 1028,0 hPa 0,0 l/m 0 min 0 min 0 W/m 9,7 km/h (2 Bft) 97,87 %
07.02.2022 21:04 5,9 C 5,0 C 1,7 C 79 % 1028,0 hPa 0,0 l/m 0 min 0 min 0 W/m 6,4 km/h (2 Bft) 100,00 %
07.02.2022 21:06 5,9 C 5,0 C 1,7 C 79 % 1028,0 hPa 0,0 l/m 0 min 0 min 0 W/m 9,7 km/h (2 Bft) 97,87 %
07.02.2022 21:08 5,8 C 5,0 C 1,7 C 80 % 1028,0 hPa 0,0 l/m 0 min 0 min 0 W/m 9,7 km/h (2 Bft) 100,00 %
07.02.2022 21:10 5,8 C 5,0 C 1,7 C 80 % 1028,0 hPa 0,0 l/m 0 min 0 min 0 W/m 6,4 km/h (2 Bft) 100,00 %
07.02.2022 21:12 5,8 C 5,0 C 1,7 C 80 % 1028,0 hPa 0,0 l/m 0 min 0 min 0 W/m 6,4 km/h (2 Bft) 95,74 %
07.02.2022 21:14 5,8 C 5,0 C 1,7 C 80 % 1028,0 hPa 0,0 l/m 0 min 0 min 0 W/m 9,7 km/h (2 Bft) 95,74 %
07.02.2022 21:16 5,8 C 5,0 C 1,7 C 80 % 1028,0 hPa 0,0 l/m 0 min 0 min 0 W/m 12,9 km/h (3 Bft) 100,00 %
07.02.2022 21:18 5,8 C 5,0 C 1,7 C 80 % 1028,0 hPa 0,0 l/m 0 min 0 min 0 W/m 12,9 km/h (3 Bft) 100,00 %
07.02.2022 21:20 5,8 C 5,0 C 1,7 C 80 % 1027,9 hPa 0,0 l/m 0 min 0 min 0 W/m 6,4 km/h (2 Bft) 97,83 %
07.02.2022 21:22 5,8 C 5,0 C 1,7 C 80 % 1028,0 hPa 0,0 l/m 0 min 0 min 0 W/m 12,9 km/h (3 Bft) 100,00 %
07.02.2022 21:24 5,8 C 5,0 C 1,7 C 80 % 1027,9 hPa 0,0 l/m 0 min 0 min 0 W/m 12,9 km/h (3 Bft) 100,00 %
07.02.2022 21:26 5,8 C 5,0 C 1,7 C 80 % 1027,9 hPa 0,0 l/m 0 min 0 min 0 W/m 9,7 km/h (2 Bft) 97,87 %
07.02.2022 21:28 5,8 C 5,0 C 1,7 C 80 % 1027,9 hPa 0,0 l/m 0 min 0 min 0 W/m 6,4 km/h (2 Bft) 95,74 %
07.02.2022 21:30 5,8 C 5,0 C 1,7 C 80 % 1027,9 hPa 0,0 l/m 0 min 0 min 0 W/m 9,7 km/h (2 Bft) 97,87 %
07.02.2022 21:32 5,8 C 5,0 C 1,7 C 80 % 1027,9 hPa 0,0 l/m 0 min 0 min 0 W/m 19,3 km/h (3 Bft) 97,87 %
07.02.2022 21:34 5,8 C 5,0 C 1,7 C 80 % 1028,0 hPa 0,0 l/m 0 min 0 min 0 W/m 6,4 km/h (2 Bft) 97,87 %
07.02.2022 21:36 5,7 C 5,0 C 1,7 C 80 % 1028,0 hPa 0,0 l/m 0 min 0 min 0 W/m 12,9 km/h (3 Bft) 97,87 %
07.02.2022 21:38 5,7 C 5,0 C 1,7 C 80 % 1028,0 hPa 0,0 l/m 0 min 0 min 0 W/m 16,1 km/h (3 Bft) 97,87 %
07.02.2022 21:40 5,7 C 5,0 C 1,7 C 80 % 1028,0 hPa 0,0 l/m 0 min 0 min 0 W/m 9,7 km/h (2 Bft) 97,87 %
07.02.2022 21:42 5,7 C 5,0 C 1,7 C 80 % 1028,0 hPa 0,0 l/m 0 min 0 min 0 W/m 12,9 km/h (3 Bft) 97,87 %
07.02.2022 21:44 5,7 C 5,0 C 1,7 C 80 % 1028,0 hPa 0,0 l/m 0 min 0 min 0 W/m 16,1 km/h (3 Bft) 97,83 %
07.02.2022 21:46 5,7 C 5,0 C 1,7 C 80 % 1028,0 hPa 0,0 l/m 0 min 0 min 0 W/m 6,4 km/h (2 Bft) 97,87 %
07.02.2022 21:48 5,7 C 5,0 C 1,7 C 80 % 1028,0 hPa 0,0 l/m 0 min 0 min 0 W/m 6,4 km/h (2 Bft) 97,87 %
07.02.2022 21:50 5,7 C 5,0 C 1,7 C 80 % 1028,0 hPa 0,0 l/m 0 min 0 min 0 W/m 16,1 km/h (3 Bft) 93,62 %
07.02.2022 21:52 5,7 C 5,0 C 1,7 C 80 % 1028,0 hPa 0,0 l/m 0 min 0 min 0 W/m 9,7 km/h (2 Bft) 95,74 %
07.02.2022 21:54 5,7 C 5,0 C 1,7 C 80 % 1028,0 hPa 0,0 l/m 0 min 0 min 0 W/m 12,9 km/h (3 Bft) 97,83 %
07.02.2022 21:56 5,7 C 5,0 C 1,7 C 80 % 1027,9 hPa 0,0 l/m 0 min 0 min 0 W/m 12,9 km/h (3 Bft) 97,87 %
07.02.2022 21:58 5,7 C 5,0 C 1,7 C 80 % 1027,9 hPa 0,0 l/m 0 min 0 min 0 W/m 16,1 km/h (3 Bft) 97,87 %
07.02.2022 22:00 5,7 C 5,0 C 1,7 C 80 % 1028,0 hPa 0,0 l/m 0 min 0 min 0 W/m 9,7 km/h (2 Bft) 100,00 %
07.02.2022 22:02 5,7 C 5,0 C 1,7 C 80 % 1027,9 hPa 0,0 l/m 0 min 0 min 0 W/m 16,1 km/h (3 Bft) 95,74 %
07.02.2022 22:04 5,7 C 5,0 C 1,7 C 80 % 1028,0 hPa 0,0 l/m 0 min 0 min 0 W/m 9,7 km/h (2 Bft) 100,00 %
07.02.2022 22:06 5,6 C 5,0 C 1,7 C 80 % 1027,9 hPa 0,0 l/m 0 min 0 min 0 W/m 9,7 km/h (2 Bft) 100,00 %
07.02.2022 22:08 5,6 C 5,0 C 1,7 C 80 % 1027,9 hPa 0,0 l/m 0 min 0 min 0 W/m 12,9 km/h (3 Bft) 97,87 %
07.02.2022 22:10 5,6 C 5,0 C 1,7 C 80 % 1028,0 hPa 0,0 l/m 0 min 0 min 0 W/m 9,7 km/h (2 Bft) 100,00 %
07.02.2022 22:12 5,6 C 5,0 C 1,7 C 80 % 1027,9 hPa 0,0 l/m 0 min 0 min 0 W/m 12,9 km/h (3 Bft) 100,00 %
07.02.2022 22:14 5,6 C 5,0 C 1,7 C 80 % 1027,9 hPa 0,0 l/m 0 min 0 min 0 W/m 9,7 km/h (2 Bft) 100,00 %
07.02.2022 22:16 5,6 C 5,0 C 1,7 C 80 % 1028,0 hPa 0,0 l/m 0 min 0 min 0 W/m 16,1 km/h (3 Bft) 95,74 %
07.02.2022 22:18 5,6 C 5,0 C 1,7 C 80 % 1028,0 hPa 0,0 l/m 0 min 0 min 0 W/m 16,1 km/h (3 Bft) 100,00 %
07.02.2022 22:20 5,6 C 5,0 C 1,7 C 80 % 1028,0 hPa 0,0 l/m 0 min 0 min 0 W/m 12,9 km/h (3 Bft) 97,87 %
07.02.2022 22:22 5,6 C 5,0 C 1,7 C 80 % 1028,0 hPa 0,0 l/m 0 min 0 min 0 W/m 19,3 km/h (3 Bft) 97,87 %
07.02.2022 22:24 5,6 C 5,0 C 1,7 C 80 % 1028,1 hPa 0,0 l/m 0 min 0 min 0 W/m 12,9 km/h (3 Bft) 97,87 %
07.02.2022 22:26 5,6 C 5,0 C 1,7 C 80 % 1028,1 hPa 0,0 l/m 0 min 0 min 0 W/m 16,1 km/h (3 Bft) 97,87 %
07.02.2022 22:28 5,6 C 5,0 C 1,7 C 80 % 1028,1 hPa 0,0 l/m 0 min 0 min 0 W/m 19,3 km/h (3 Bft) 95,74 %
07.02.2022 22:30 5,6 C 5,0 C 1,7 C 80 % 1028,1 hPa 0,0 l/m 0 min 0 min 0 W/m 22,5 km/h (4 Bft) 97,83 %
07.02.2022 22:32 5,6 C 5,0 C 1,7 C 80 % 1028,1 hPa 0,0 l/m 0 min 0 min 0 W/m 25,7 km/h (4 Bft) 97,87 %
07.02.2022 22:34 5,6 C 5,0 C 1,7 C 80 % 1028,1 hPa 0,0 l/m 0 min 0 min 0 W/m 12,9 km/h (3 Bft) 97,87 %
07.02.2022 22:36 5,6 C 5,0 C 1,7 C 80 % 1028,2 hPa 0,0 l/m 0 min 0 min 0 W/m 19,3 km/h (3 Bft) 97,87 %
07.02.2022 22:38 5,6 C 5,0 C 1,7 C 80 % 1028,1 hPa 0,0 l/m 0 min 0 min 0 W/m 16,1 km/h (3 Bft) 93,62 %
07.02.2022 22:40 5,6 C 5,0 C 1,7 C 81 % 1028,1 hPa 0,0 l/m 0 min 0 min 0 W/m 12,9 km/h (3 Bft) 97,87 %
07.02.2022 22:42 5,5 C 5,0 C 1,7 C 81 % 1028,1 hPa 0,0 l/m 0 min 0 min 0 W/m 9,7 km/h (2 Bft) 95,65 %
07.02.2022 22:44 5,5 C 4,4 C 1,7 C 81 % 1028,2 hPa 0,0 l/m 0 min 0 min 0 W/m 12,9 km/h (3 Bft) 95,74 %
07.02.2022 22:46 5,4 C 4,4 C 1,7 C 81 % 1028,2 hPa 0,0 l/m 0 min 0 min 0 W/m 19,3 km/h (3 Bft) 97,87 %
07.02.2022 22:48 5,4 C 4,4 C 1,7 C 81 % 1028,2 hPa 0,0 l/m 0 min 0 min 0 W/m 12,9 km/h (3 Bft) 100,00 %
07.02.2022 22:50 5,4 C 4,4 C 1,7 C 81 % 1028,2 hPa 0,0 l/m 0 min 0 min 0 W/m 12,9 km/h (3 Bft) 97,87 %
07.02.2022 22:52 5,4 C 4,4 C 1,7 C 81 % 1028,2 hPa 0,0 l/m 0 min 0 min 0 W/m 16,1 km/h (3 Bft) 95,74 %
07.02.2022 22:54 5,4 C 5,0 C 1,7 C 81 % 1028,1 hPa 0,0 l/m 0 min 0 min 0 W/m 12,9 km/h (3 Bft) 97,83 %
07.02.2022 22:56 5,4 C 5,0 C 1,7 C 81 % 1028,2 hPa 0,0 l/m 0 min 0 min 0 W/m 9,7 km/h (2 Bft) 97,87 %
07.02.2022 22:58 5,4 C 5,0 C 1,7 C 81 % 1028,1 hPa 0,0 l/m 0 min 0 min 0 W/m 12,9 km/h (3 Bft) 97,87 %
07.02.2022 23:00 5,4 C 5,0 C 1,7 C 81 % 1028,1 hPa 0,0 l/m 0 min 0 min 0 W/m 12,9 km/h (3 Bft) 97,87 %
07.02.2022 23:02 5,4 C 5,0 C 1,7 C 81 % 1028,1 hPa 0,0 l/m 0 min 0 min 0 W/m 16,1 km/h (3 Bft) 95,74 %
07.02.2022 23:04 5,4 C 5,0 C 1,7 C 81 % 1028,2 hPa 0,0 l/m 0 min 0 min 0 W/m 12,9 km/h (3 Bft) 97,87 %
07.02.2022 23:06 5,5 C 5,0 C 1,7 C 81 % 1028,1 hPa 0,0 l/m 0 min 0 min 0 W/m 22,5 km/h (4 Bft) 97,83 %
07.02.2022 23:08 5,5 C 5,0 C 1,7 C 81 % 1028,1 hPa 0,0 l/m 0 min 0 min 0 W/m 12,9 km/h (3 Bft) 97,87 %
07.02.2022 23:10 5,5 C 5,0 C 1,7 C 81 % 1028,1 hPa 0,0 l/m 0 min 0 min 0 W/m 12,9 km/h (3 Bft) 95,74 %
07.02.2022 23:12 5,5 C 5,0 C 1,7 C 81 % 1028,1 hPa 0,0 l/m 0 min 0 min 0 W/m 9,7 km/h (2 Bft) 95,74 %
07.02.2022 23:14 5,5 C 5,0 C 1,7 C 81 % 1028,0 hPa 0,0 l/m 0 min 0 min 0 W/m 19,3 km/h (3 Bft) 93,62 %
07.02.2022 23:16 5,5 C 5,0 C 1,7 C 81 % 1028,0 hPa 0,0 l/m 0 min 0 min 0 W/m 12,9 km/h (3 Bft) 97,87 %
07.02.2022 23:18 5,6 C 5,0 C 1,7 C 81 % 1028,1 hPa 0,0 l/m 0 min 0 min 0 W/m 12,9 km/h (3 Bft) 72,34 %
07.02.2022 23:20 5,6 C 5,0 C 1,7 C 82 % 1028,1 hPa 0,0 l/m 0 min 0 min 0 W/m 12,9 km/h (3 Bft) 75,61 %
07.02.2022 23:22 5,6 C 5,0 C 1,7 C 82 % 1028,1 hPa 0,0 l/m 0 min 0 min 0 W/m 9,7 km/h (2 Bft) 95,83 %
07.02.2022 23:24 5,6 C 5,0 C 1,7 C 82 % 1028,1 hPa 0,0 l/m 0 min 0 min 0 W/m 9,7 km/h (2 Bft) 95,74 %
07.02.2022 23:26 5,6 C 5,0 C 1,7 C 82 % 1028,0 hPa 0,0 l/m 0 min 0 min 0 W/m 12,9 km/h (3 Bft) 95,74 %
07.02.2022 23:28 5,6 C 5,0 C 1,7 C 82 % 1028,1 hPa 0,0 l/m 0 min 0 min 0 W/m 12,9 km/h (3 Bft) 97,87 %
07.02.2022 23:30 5,5 C 5,0 C 1,7 C 82 % 1028,1 hPa 0,0 l/m 0 min 0 min 0 W/m 9,7 km/h (2 Bft) 95,65 %
07.02.2022 23:32 5,5 C 5,0 C 1,7 C 82 % 1028,0 hPa 0,0 l/m 0 min 0 min 0 W/m 19,3 km/h (3 Bft) 95,83 %
07.02.2022 23:34 5,5 C 4,4 C 1,7 C 82 % 1028,1 hPa 0,0 l/m 0 min 0 min 0 W/m 12,9 km/h (3 Bft) 93,62 %
07.02.2022 23:36 5,4 C 4,4 C 1,7 C 82 % 1028,0 hPa 0,0 l/m 0 min 0 min 0 W/m 12,9 km/h (3 Bft) 95,74 %
07.02.2022 23:38 5,4 C 4,4 C 1,7 C 82 % 1028,0 hPa 0,0 l/m 0 min 0 min 0 W/m 16,1 km/h (3 Bft) 95,74 %
07.02.2022 23:40 5,4 C 5,0 C 1,7 C 82 % 1028,0 hPa 0,0 l/m 0 min 0 min 0 W/m 19,3 km/h (3 Bft) 95,74 %
07.02.2022 23:42 5,4 C 5,0 C 1,7 C 82 % 1028,0 hPa 0,0 l/m 0 min 0 min 0 W/m 12,9 km/h (3 Bft) 95,65 %
07.02.2022 23:44 5,4 C 5,0 C 1,7 C 82 % 1027,9 hPa 0,0 l/m 0 min 0 min 0 W/m 6,4 km/h (2 Bft) 95,74 %
07.02.2022 23:46 5,4 C 5,0 C 1,7 C 82 % 1028,0 hPa 0,0 l/m 0 min 0 min 0 W/m 12,9 km/h (3 Bft) 97,87 %
07.02.2022 23:48 5,4 C 5,0 C 1,7 C 82 % 1028,0 hPa 0,0 l/m 0 min 0 min 0 W/m 16,1 km/h (3 Bft) 95,74 %
07.02.2022 23:50 5,5 C 5,0 C 1,7 C 82 % 1027,9 hPa 0,0 l/m 0 min 0 min 0 W/m 12,9 km/h (3 Bft) 95,74 %
07.02.2022 23:52 5,5 C 5,0 C 1,7 C 82 % 1027,9 hPa 0,0 l/m 0 min 0 min 0 W/m 9,7 km/h (2 Bft) 95,65 %
07.02.2022 23:54 5,5 C 5,0 C 1,7 C 83 % 1028,0 hPa 0,0 l/m 0 min 0 min 0 W/m 16,1 km/h (3 Bft) 97,87 %
07.02.2022 23:56 5,5 C 5,0 C 1,7 C 83 % 1028,0 hPa 0,0 l/m 0 min 0 min 0 W/m 12,9 km/h (3 Bft) 97,87 %
07.02.2022 23:58 5,5 C 5,0 C 1,7 C 83 % 1027,9 hPa 0,0 l/m 0 min 0 min 0 W/m 9,7 km/h (2 Bft) 97,87 %
_ Min-Zeit 03:44 03:26 03:28 15:58 00:00 - - - - 17:12 17:34
Minimum _ 2,3 C 1,7 C -0,6 C 75 % 1005,2 hPa - - - - 3,2 km/h (1 Bft) 52,17 %
_ Max-Zeit 14:06 13:46 14:02 00:48 22:36 00:18 09:10 00:14 13:58 01:10 00:28
Maximum _ 7,8 C 13,3 C 4,4 C 93 % 1028,2 hPa 0,2 l/m 2 min 2 min 519 W/m 57,9 km/h
NO (7 Bft)
100,00 %
Durchschnitt _ 5,0 C 4,8 C 1,7 C 86 % 1021,5 hPa #1,6 l/m #2:58 h #1:10 h 138 W/m 15,7 km/h (3 Bft) 97,19 %
© 2022 W. Hausmann